                ,  0.485,  0.585,  0.685,  0.785,  0.885,  0.985,  1.085,  1.185,  1.285,  1.385,  1.485,  1.585,  1.685,  1.785,  1.885,  1.985,  2.085,  2.185,  2.285,  2.385,  2.485,  2.585,  2.685,  2.785,  2.885,  2.985,  3.085,  3.185,  3.285,  3.385,  3.485,  3.585,  3.685,  3.785,  3.885,  3.985,  4.085,  4.185,  4.285,  4.385,  4.485,  4.585,  4.685,  4.785,  4.885,  4.985,  5.085,  5.185,  5.285,  5.385,  5.485,  5.585,  5.685,  5.785,  5.885,  5.985,  6.085,  6.185,  6.285,  6.385,  6.485,  6.585,  6.685,  6.785,  6.885,  6.985,  7.085,  7.185,  7.285,  7.385,  7.485,  7.585,  7.685,  7.785,  7.885,  7.985,  8.085,  8.185,  8.285,  8.385
2007/10/09 00:00,   -3.9,   -3.9,   -3.6,   -3.3,  999.0,   -3.0,  999.0,  999.0,  999.0,  999.0,  999.0,  999.0,  999.0,  999.0,  999.0,  999.0,  999.0,  999.0,  999.0,   -2.1,   -2.6,   -2.2,   -2.0,   -1.4,   -1.1,   -0.8,   -0.4,  999.0,   -0.5,   -0.5,   -0.4,    0.0,   -0.3,   -0.0,   -0.3,   -0.2,   -0.3,   -0.3,   -0.3,   -0.2,   -0.3,   -0.3,   -0.2,  999.0,  999.0,  999.0,  999.0,  999.0,  999.0,  999.0,    0.3,    0.2,   -0.1,  999.0,  999.0,  999.0,    0.3,    0.6,    0.7,    0.6,  999.0,  999.0,  999.0,    0.5,    0.5,  999.0,  999.0,  999.0,  999.0,  999.0,  999.0,  999.0,  999.0,  999.0,  999.0,  999.0,  999.0,  999.0,  999.0,  999.0
2007/10/09 00:10,  999.0,   -1.1,   -1.6,   -2.5,   -0.8,   -1.1,   -0.4,   -0.2,   -0.1,   -0.1,   -0.4,   -0.3,   -0.1,   -0.1,   -0.2,   -0.2,   -0.2,   -0.1,   -0.2,   -0.3,   -0.4,   -0.3,   -0.3,   -0.0,   -0.1,   -0.1,   -0.0,    0.0,   -0.1,   -0.1,   -0.1,   -0.1,   -0.1,   -0.1,   -0.1,   -0.0,   -0.1,   -0.0,   -0.1,   -0.1,   -0.2,   -0.2,   -0.2,   -0.1,  999.0,  999.0,  999.0,  999.0,  999.0,  999.0,  999.0,  999.0,  999.0,  999.0,  999.0,  999.0,    0.3,    0.3,    0.4,  999.0,    0.2,    0.3,    0.3,    0.4,    0.4,    0.3,  999.0,  999.0,  999.0,  999.0,  999.0,  999.0,  999.0,  999.0,  999.0,  999.0,  999.0,  999.0,    0.1,    0.1
2007/10/09 00:20,    0.0,    0.0,   -0.2,   -0.4,   -0.1,   -0.0,    0.0,    0.0,   -0.0,   -0.1,   -0.1,   -0.3,   -0.4,   -0.3,   -0.2,   -0.3,   -0.2,   -0.2,   -0.3,   -0.3,   -0.2,   -0.1,    0.1,    0.1,   -0.0,    0.1,    0.1,    0.1,   -0.0,   -0.0,    0.1,    0.0,   -0.1,   -0.0,   -0.0,   -0.0,    0.0,   -0.1,    0.1,   -0.1,    0.0,   -0.1,   -0.1,  999.0,  999.0,  999.0,  999.0,  999.0,  999.0,  999.0,  999.0,  999.0,  999.0,  999.0,  999.0,  999.0,  999.0,  999.0,  999.0,  999.0,  999.0,  999.0,  999.0,  999.0,  999.0,  999.0,    0.1,    0.3,  999.0,  999.0,  999.0,  999.0,  999.0,  999.0,  999.0,  999.0,  999.0,  999.0,  999.0,  999.0
2007/10/09 00:30,    0.0,    0.0,   -0.0,   -0.1,   -0.0,   -0.1,   -0.0,   -0.0,   -0.0,    0.1,    0.2,    0.1,   -0.0,   -0.0,   -0.0,   -0.1,    0.2,    0.1,   -0.2,   -0.1,   -0.0,   -0.0,    0.0,    0.0,   -0.1,   -0.1,    0.0,    0.0,    0.1,    0.0,    0.1,    0.1,    0.2,    0.1,    0.1,    0.2,    0.1,    0.1,    0.3,  999.0,    0.3,    0.3,    0.2,    0.1,  999.0,  999.0,  999.0,    0.0,  999.0,  999.0,  999.0,  999.0,  999.0,  999.0,  999.0,  999.0,    0.4,    0.5,  999.0,  999.0,  999.0,  999.0,    0.2,   -0.1,   -0.2,  999.0,  999.0,  999.0,    0.0,  999.0,  999.0,  999.0,  999.0,  999.0,  999.0,  999.0,  999.0,  999.0,  999.0,  999.0
2007/10/09 00:40,   -0.0,   -0.0,   -0.1,   -0.1,   -0.1,    0.0,   -0.0,   -0.0,   -0.1,   -0.1,    0.2,    0.2,    0.2,    0.0,    0.1,    0.1,   -0.1,   -0.2,   -0.3,   -0.3,   -0.1,    0.2,   -0.1,   -0.1,   -0.0,   -0.1,   -0.0,    0.0,    0.0,    0.0,    0.1,    0.0,    0.1,   -0.0,   -0.1,   -0.0,    0.0,    0.1,   -0.0,  999.0,    0.0,    0.0,   -0.1,    0.0,  999.0,  999.0,  999.0,    0.0,  999.0,  999.0,  999.0,  999.0,  999.0,  999.0,  999.0,    0.2,  999.0,  999.0,  999.0,  999.0,  999.0,  999.0,  999.0,  999.0,   -0.0,   -0.0,  999.0,  999.0,    0.1,  999.0,  999.0,  999.0,  999.0,  999.0,  999.0,  999.0,  999.0,  999.0,  999.0,  999.0
2007/10/09 00:50,   -0.0,   -0.0,   -0.0,   -0.1,   -0.1,   -0.1,   -0.1,   -0.2,   -0.3,   -0.2,   -0.3,   -0.2,   -0.2,   -0.1,   -0.1,   -0.2,   -0.1,   -0.1,   -0.1,   -0.0,    0.2,    0.1,    0.2,    0.0,    0.1,   -0.0,    0.0,   -0.0,   -0.0,   -0.0,   -0.0,   -0.1,   -0.0,   -0.0,   -0.0,    0.0,    0.0,    0.1,    0.1,    0.1,    0.1,    0.1,    0.2,    0.0,  999.0,  999.0,  999.0,  999.0,  999.0,  999.0,  999.0,  999.0,  999.0,  999.0,  999.0,  999.0,  999.0,  999.0,  999.0,  999.0,  999.0,  999.0,  999.0,  999.0,  999.0,  999.0,  999.0,    0.2,    0.1,  999.0,  999.0,  999.0,  999.0,  999.0,  999.0,  999.0,  999.0,  999.0,  999.0,  999.0
2007/10/09 01:00,   -0.0,   -0.0,   -0.1,   -0.0,    0.2,    0.2,    0.3,    0.0,    0.0,    0.1,   -0.0,    0.0,   -0.1,   -0.0,   -0.2,   -0.2,   -0.2,   -0.1,   -0.1,   -0.2,   -0.2,   -0.1,   -0.1,   -0.1,   -0.2,   -0.1,   -0.0,   -0.0,   -0.1,   -0.0,   -0.0,   -0.0,   -0.0,   -0.0,    0.0,    0.1,    0.2,    0.2,    0.3,    0.2,    0.1,    0.1,    0.1,    0.2,  999.0,  999.0,  999.0,  999.0,  999.0,  999.0,  999.0,  999.0,  999.0,  999.0,  999.0,  999.0,  999.0,  999.0,    0.5,    0.5,  999.0,  999.0,  999.0,  999.0,    0.2,    0.2,  999.0,  999.0,   -0.3,   -0.1,  999.0,  999.0,  999.0,  999.0,  999.0,  999.0,  999.0,  999.0,  999.0,  999.0
2007/10/09 01:10,    0.0,    0.0,   -0.0,    0.0,    0.0,    0.1,    0.1,    0.1,    0.1,    0.1,    0.0,    0.1,   -0.0,    0.1,   -0.1,   -0.0,   -0.1,   -0.1,   -0.2,    0.2,  999.0,  999.0,    0.0,    0.1,    0.0,    0.1,    0.1,    0.1,    0.1,    0.1,    0.0,   -0.0,   -0.0,    0.0,   -0.0,    0.0,    0.0,    0.0,    0.1,    0.0,    0.1,    0.0,   -0.0,    0.1,    0.0,  999.0,    0.0,    0.0,  999.0,  999.0,  999.0,  999.0,  999.0,  999.0,  999.0,  999.0,  999.0,  999.0,  999.0,  999.0,  999.0,  999.0,  999.0,  999.0,  999.0,  999.0,  999.0,  999.0,  999.0,  999.0,  999.0,  999.0,  999.0,  999.0,  999.0,  999.0,  999.0,  999.0,  999.0,  999.0
2007/10/09 01:20,   -0.1,    0.0,    0.0,   -0.0,   -0.0,    0.0,    0.0,    0.0,    0.0,    0.1,    0.1,    0.1,    0.0,   -0.1,   -0.0,   -0.0,    0.1,   -0.1,   -0.1,    0.1,    0.0,   -0.0,   -0.1,   -0.1,   -0.1,   -0.1,   -0.0,   -0.1,   -0.0,   -0.1,   -0.1,   -0.1,   -0.0,   -0.1,   -0.0,   -0.0,   -0.1,   -0.1,   -0.1,   -0.0,   -0.1,   -0.1,   -0.0,    0.0,  999.0,  999.0,  999.0,  999.0,  999.0,  999.0,  999.0,  999.0,  999.0,  999.0,  999.0,  999.0,  999.0,  999.0,  999.0,   -0.1,   -0.0,   -0.3,    0.1,   -0.1,  999.0,  999.0,  999.0,  999.0,  999.0,  999.0,  999.0,  999.0,  999.0,  999.0,  999.0,  999.0,  999.0,  999.0,  999.0,  999.0
2007/10/09 01:30,    0.0,   -0.6,    0.0,   -0.0,   -0.1,   -0.1,   -0.3,   -0.0,   -0.1,    0.0,    0.0,   -0.1,   -0.2,   -0.2,   -0.3,   -0.1,   -0.2,   -0.3,   -0.4,   -0.4,   -0.4,   -0.2,   -0.2,   -0.1,   -0.1,    0.0,   -0.0,   -0.1,   -0.1,   -0.1,   -0.1,   -0.1,   -0.0,   -0.0,    0.0,    0.0,   -0.1,    0.0,   -0.0,    0.0,   -0.0,    0.0,    0.1,  999.0,  999.0,  999.0,  999.0,  999.0,  999.0,  999.0,  999.0,  999.0,  999.0,  999.0,  999.0,  999.0,  999.0,  999.0,  999.0,    0.2,    0.2,    0.3,  999.0,  999.0,  999.0,  999.0,  999.0,  999.0,  999.0,  999.0,  999.0,  999.0,  999.0,  999.0,  999.0,  999.0,  999.0,  999.0,  999.0,  999.0
2007/10/09 01:40,   -0.0,   -0.0,   -0.0,   -0.1,   -0.0,    0.0,   -0.1,   -0.1,    0.1,    0.0,    0.3,    0.1,   -0.2,   -0.1,   -0.2,    0.0,   -0.0,   -0.0,    0.2,   -0.1,    0.1,    0.1,    0.1,    0.2,    0.1,    0.0,    0.0,    0.0,    0.1,   -0.0,   -0.0,    0.1,    0.1,    0.2,    0.2,    0.2,    0.1,    0.1,    0.1,    0.0,    0.1,    0.1,   -0.1,  999.0,  999.0,  999.0,  999.0,    0.0,  999.0,  999.0,  999.0,  999.0,  999.0,  999.0,  999.0,  999.0,  999.0,  999.0,  999.0,  999.0,  999.0,  999.0,  999.0,  999.0,  999.0,  999.0,  999.0,  999.0,  999.0,  999.0,  999.0,  999.0,  999.0,  999.0,  999.0,  999.0,  999.0,  999.0,  999.0,  999.0
2007/10/09 01:50,    0.0,   -0.0,    0.0,    0.0,   -0.0,    0.1,   -0.0,    0.0,   -0.0,    0.2,    0.1,    0.2,    0.2,    0.1,   -0.1,    0.0,    0.1,    0.1,    0.2,    0.1,    0.1,    0.1,    0.0,   -0.1,   -0.1,   -0.0,   -0.0,    0.0,    0.0,   -0.0,   -0.0,   -0.0,    0.0,    0.0,   -0.0,   -0.0,    0.1,    0.1,    0.0,    0.1,    0.2,  999.0,  999.0,  999.0,  999.0,  999.0,  999.0,    0.1,  999.0,  999.0,  999.0,  999.0,  999.0,  999.0,  999.0,  999.0,  999.0,  999.0,  999.0,  999.0,  999.0,  999.0,  999.0,  999.0,  999.0,  999.0,  999.0,  999.0,  999.0,  999.0,  999.0,  999.0,  999.0,  999.0,  999.0,  999.0,  999.0,  999.0,  999.0,  999.0
2007/10/09 02:00,    0.0,    0.0,    0.0,   -0.0,   -0.1,    0.0,    0.0,   -0.0,    0.0,    0.0,    0.1,    0.1,    0.1,   -0.0,    0.1,   -0.1,   -0.2,   -0.2,   -0.2,   -0.1,   -0.1,   -0.1,   -0.1,   -0.1,    0.0,    0.0,    0.0,   -0.0,    0.0,    0.0,    0.0,    0.1,    0.1,    0.1,    0.1,    0.2,    0.2,    0.2,    0.1,    0.1,    0.0,   -0.0,  999.0,  999.0,  999.0,  999.0,  999.0,  999.0,  999.0,    0.1,  999.0,  999.0,  999.0,  999.0,  999.0,  999.0,    0.2,    0.2,    0.3,    0.2,    0.2,  999.0,  999.0,  999.0,  999.0,  999.0,  999.0,  999.0,  999.0,  999.0,  999.0,  999.0,  999.0,  999.0,  999.0,  999.0,  999.0,  999.0,  999.0,  999.0
2007/10/09 02:10,  999.0,   -0.0,    0.0,   -0.0,   -0.1,   -0.1,   -0.1,   -0.1,   -0.2,   -0.3,   -0.3,   -0.3,   -0.1,   -0.2,   -0.1,   -0.2,   -0.1,    0.0,   -0.1,    0.1,    0.0,   -0.0,    0.1,    0.1,    0.1,    0.2,    0.2,    0.1,    0.1,    0.1,    0.1,    0.1,    0.2,    0.1,    0.1,    0.2,    0.1,    0.1,    0.1,    0.1,    0.2,  999.0,  999.0,  999.0,  999.0,  999.0,  999.0,  999.0,   -0.0,    0.1,    0.2,    0.1,    0.2,  999.0,  999.0,  999.0,  999.0,    0.3,    0.4,    0.3,    0.5,  999.0,  999.0,  999.0,  999.0,  999.0,  999.0,  999.0,  999.0,  999.0,  999.0,  999.0,  999.0,  999.0,  999.0,  999.0,  999.0,  999.0,  999.0,  999.0
2007/10/09 02:20,   -0.0,    0.0,   -0.0,    0.0,   -0.0,    0.0,    0.1,    0.1,    0.1,   -0.0,    0.0,    0.2,    0.1,   -0.1,   -0.2,   -0.2,   -0.1,   -0.0,   -0.0,   -0.1,   -0.0,   -0.0,   -0.1,    0.0,   -0.1,    0.1,    0.2,    0.1,    0.2,    0.1,    0.2,    0.2,    0.2,    0.3,    0.3,    0.2,    0.2,    0.2,    0.3,    0.2,    0.2,  999.0,  999.0,  999.0,  999.0,   -0.0,    0.1,    0.2,    0.2,    0.2,    0.3,    0.5,    0.5,  999.0,  999.0,    0.5,    0.5,    0.4,    0.5,    0.6,  999.0,  999.0,  999.0,  999.0,  999.0,  999.0,  999.0,    0.3,  999.0,  999.0,  999.0,  999.0,  999.0,  999.0,  999.0,  999.0,  999.0,    0.3,  999.0,  999.0
2007/10/09 02:30,   -0.0,    0.0,   -0.0,    0.0,    0.0,    0.0,    0.1,    0.1,    0.0,   -0.1,   -0.1,   -0.1,   -0.2,   -0.2,   -0.4,   -0.4,   -0.4,   -0.2,   -0.1,   -0.1,   -0.0,   -0.0,    0.1,    0.0,    0.0,    0.0,    0.1,    0.0,    0.0,    0.0,   -0.0,   -0.0,   -0.0,   -0.0,   -0.0,   -0.1,   -0.1,   -0.1,   -0.0,   -0.2,  999.0,  999.0,  999.0,  999.0,   -0.1,   -0.2,   -0.1,   -0.0,   -0.0,    0.2,    0.0,    0.1,    0.2,    0.4,    0.4,    0.4,    0.5,    0.4,    0.4,    0.3,  999.0,  999.0,  999.0,  999.0,  999.0,  999.0,  999.0,  999.0,  999.0,  999.0,  999.0,  999.0,  999.0,  999.0,  999.0,  999.0,  999.0,  999.0,  999.0,  999.0
2007/10/09 02:40,    0.0,    0.0,   -0.0,   -0.0,   -0.0,   -0.0,    0.0,   -0.1,   -0.1,   -0.2,   -0.1,   -0.1,   -0.0,    0.0,   -0.0,    0.0,    0.0,   -0.0,    0.2,    0.0,   -0.2,   -0.1,   -0.0,   -0.1,   -0.1,   -0.1,   -0.0,   -0.0,   -0.0,    0.0,    0.0,    0.1,    0.1,    0.1,    0.1,    0.0,   -0.0,    0.1,    0.1,    0.1,   -0.0,   -0.3,    0.0,   -0.1,   -0.1,   -0.1,   -0.1,   -0.1,    0.0,    0.1,    0.1,    0.1,    0.2,   -0.1,    0.1,    0.0,   -0.0,  999.0,  999.0,    0.4,  999.0,  999.0,  999.0,  999.0,  999.0,  999.0,  999.0,  999.0,  999.0,  999.0,  999.0,  999.0,  999.0,  999.0,  999.0,  999.0,  999.0,  999.0,  999.0,  999.0
2007/10/09 02:50,   -0.1,   -0.1,   -0.0,   -0.0,    0.0,   -0.0,    0.1,   -0.0,    0.0,    0.1,   -0.0,    0.0,   -0.1,    0.1,    0.0,    0.0,    0.1,    0.1,   -0.0,   -0.0,    0.0,   -0.0,    0.0,   -0.1,   -0.0,    0.1,    0.1,    0.0,    0.0,   -0.0,    0.0,    0.0,    0.1,    0.1,    0.1,   -0.0,   -0.0,    0.1,    0.2,    0.2,    0.2,    0.1,  999.0,    0.2,  999.0,    0.1,    0.2,    0.1,    0.0,   -0.6,   -0.7,   -0.6,   -1.1,   -0.9,   -1.1,   -1.3,   -1.5,   -1.3,   -1.3,   -1.3,   -1.3,   -1.3,   -1.2,   -0.9,   -0.7,   -0.5,   -0.2,    0.0,    0.1,  999.0,  999.0,  999.0,  999.0,  999.0,  999.0,  999.0,  999.0,  999.0,  999.0,  999.0
2007/10/09 03:00,   -0.0,    0.0,   -0.0,   -0.0,    0.0,   -0.0,   -0.0,   -0.1,   -0.1,   -0.1,   -0.1,   -0.2,   -0.4,   -0.1,    0.0,   -0.1,   -0.1,   -0.0,   -0.1,   -0.0,    0.0,    0.0,    0.0,    0.0,    0.0,    0.0,   -0.1,   -0.0,   -0.0,   -0.1,   -0.0,    0.0,   -0.0,    0.0,    0.2,    0.1,    0.1,    0.1,    0.0,    0.1,    0.2,    0.2,    0.2,    0.2,    0.3,    0.1,    0.2,    0.1,    0.2,    0.1,   -0.1,    0.5,  999.0,   -1.1,   -1.1,   -1.0,   -1.1,   -1.1,   -1.2,   -1.1,   -1.1,   -1.0,   -1.0,   -0.8,   -0.8,   -0.6,   -0.4,   -0.1,    0.2,  999.0,  999.0,  999.0,  999.0,  999.0,  999.0,  999.0,  999.0,  999.0,  999.0,  999.0
2007/10/09 03:10,  999.0,    0.0,    0.0,   -0.0,    0.1,    0.1,   -0.0,   -0.0,    0.0,    0.0,   -0.1,    0.4,    0.1,   -0.0,    0.1,    0.1,    0.1,    0.0,   -0.0,    0.0,    0.0,    0.1,    0.0,   -0.0,    0.0,    0.0,   -0.0,    0.0,    0.0,   -0.0,   -0.1,   -0.0,   -0.0,    0.1,   -0.1,   -0.1,   -0.0,   -0.0,    0.0,    0.0,    0.1,    0.1,    0.1,    0.2,    0.2,    0.2,    0.0,    0.1,    0.1,    0.0,    0.1,    0.1,   -0.2,   -0.6,   -1.3,   -1.1,   -1.1,   -1.1,   -1.2,   -1.2,   -1.2,   -1.1,   -1.1,   -1.2,   -1.0,   -0.9,   -0.6,   -0.4,   -0.2,   -0.1,  999.0,  999.0,  999.0,  999.0,   -0.1,  999.0,  999.0,  999.0,  999.0,  999.0
2007/10/09 03:20,    0.0,   -0.0,   -1.1,   -1.2,  999.0,   -1.2,   -0.9,   -1.3,   -1.1,   -0.5,   -0.1,   -0.1,   -0.2,   -0.0,   -0.1,   -0.0,   -0.1,   -0.1,   -0.1,   -0.0,    0.0,    0.1,    0.0,    0.1,    0.0,    0.2,    0.1,    0.2,    0.1,    0.1,    0.1,    0.0,   -0.0,    0.1,    0.1,    0.1,    0.1,    0.1,    0.0,    0.0,    0.0,   -0.0,   -0.0,   -0.0,   -0.0,   -0.0,   -0.1,   -0.0,   -0.0,   -0.2,   -0.3,   -0.4,   -0.5,   -0.5,   -1.3,   -1.0,   -1.0,   -0.9,   -1.0,   -1.2,   -1.1,   -1.0,   -0.9,   -0.8,   -0.5,   -0.3,   -0.1,   -0.0,  999.0,  999.0,  999.0,  999.0,  999.0,  999.0,  999.0,  999.0,  999.0,  999.0,  999.0,  999.0
2007/10/09 03:30,   -0.2,   -0.1,   -0.1,   -0.3,   -0.3,   -0.2,   -0.1,   -0.1,   -0.1,   -0.0,   -0.2,   -0.2,   -0.1,   -0.0,   -0.1,   -0.0,    0.0,   -0.1,   -0.0,    0.0,   -0.0,    0.0,    0.0,   -0.1,    0.0,    0.1,    0.1,    0.1,    0.1,    0.0,    0.1,    0.1,    0.0,   -0.0,   -0.0,    0.0,   -0.0,   -0.0,   -0.0,    0.0,    0.1,    0.0,    0.1,    0.1,    0.1,    0.1,    0.2,   -0.1,   -0.1,   -0.0,   -0.4,   -0.9,   -0.8,   -1.3,   -1.3,   -1.4,   -1.3,   -1.4,   -1.4,   -1.1,   -1.2,   -1.1,   -1.0,   -0.8,   -0.6,   -0.3,   -0.1,    0.1,    0.2,  999.0,  999.0,  999.0,  999.0,    0.2,  999.0,  999.0,  999.0,  999.0,  999.0,  999.0
2007/10/09 03:40,    0.0,   -0.0,   -0.0,   -0.0,   -0.0,   -0.1,    0.0,    0.1,    0.0,    0.1,    0.0,    0.1,    0.0,   -0.3,   -0.2,   -0.1,    0.0,    0.3,    0.0,    0.1,    0.0,    0.1,    0.0,    0.0,    0.1,    0.1,    0.1,   -0.0,    0.0,   -0.0,   -0.1,   -0.1,    0.0,   -0.0,    0.0,    0.0,    0.2,    0.0,  999.0,    0.1,    0.1,    0.2,    0.2,    0.4,    0.4,    0.4,    0.2,    0.1,    0.2,    0.0,   -0.2,   -0.4,   -0.6,   -0.9,   -0.9,   -0.8,   -0.7,   -1.3,   -0.8,   -0.8,   -0.6,   -0.8,   -0.8,   -0.3,   -0.2,    0.0,    0.2,  999.0,  999.0,  999.0,  999.0,  999.0,  999.0,    0.3,  999.0,  999.0,  999.0,  999.0,  999.0,  999.0
2007/10/09 03:50,   -0.1,   -0.1,   -0.1,   -0.2,   -0.3,   -0.2,   -0.1,   -0.0,   -0.0,   -0.1,   -0.1,   -0.1,   -0.1,   -0.3,   -0.2,   -0.2,   -0.1,   -0.1,    0.2,    0.0,   -0.0,    0.0,    0.0,   -0.0,   -0.0,   -0.0,    0.0,    0.0,    0.1,    0.0,    0.0,   -0.0,   -0.0,   -0.0,   -0.0,   -0.0,    0.0,    0.0,    0.1,    0.0,    0.0,    0.1,    0.1,  999.0,    0.2,    0.3,    0.2,    0.0,    0.2,   -0.0,   -0.2,   -0.3,   -0.2,   -0.5,    0.0,  999.0,   -0.3,  999.0,  999.0,  999.0,  999.0,  999.0,  999.0,  999.0,  999.0,  999.0,  999.0,  999.0,  999.0,  999.0,  999.0,    0.2,    0.4,  999.0,  999.0,  999.0,  999.0,  999.0,  999.0,  999.0
2007/10/09 04:00,   -0.0,   -0.0,   -0.0,    0.1,   -0.2,  999.0,   -0.0,    0.1,   -0.4,   -0.2,   -0.3,   -0.1,   -0.2,   -0.2,   -0.5,   -0.5,   -0.6,   -0.3,   -0.3,   -0.1,   -0.1,    0.1,    0.0,    0.0,    0.0,    0.2,    0.2,    0.2,    0.1,    0.1,    0.1,    0.0,    0.1,    0.1,    0.1,    0.1,    0.0,    0.1,    0.1,    0.1,    0.1,    0.1,    0.1,  999.0,    0.1,    0.3,    0.2,    0.2,    0.2,   -0.1,    0.1,    0.1,  999.0,  999.0,  999.0,  999.0,  999.0,  999.0,  999.0,  999.0,  999.0,  999.0,  999.0,  999.0,  999.0,  999.0,  999.0,  999.0,  999.0,  999.0,  999.0,  999.0,  999.0,  999.0,  999.0,  999.0,  999.0,  999.0,  999.0,  999.0
2007/10/09 04:10,   -0.0,   -0.0,   -0.1,   -0.2,  999.0,  999.0,   -0.0,   -0.1,   -0.3,   -0.4,   -0.1,   -0.3,   -0.3,   -0.2,   -0.3,   -0.4,   -0.3,   -0.2,   -0.1,   -0.0,   -0.0,   -0.0,    0.0,   -0.0,    0.1,    0.1,    0.1,    0.1,    0.1,    0.1,    0.1,    0.1,    0.0,    0.0,    0.1,    0.1,    0.0,    0.2,    0.2,    0.2,    0.3,    0.3,    0.1,  999.0,  999.0,   -0.1,   -0.3,   -0.2,   -0.2,    0.0,    0.1,    0.3,  999.0,  999.0,  999.0,  999.0,  999.0,  999.0,  999.0,  999.0,  999.0,   -0.1,  999.0,  999.0,  999.0,  999.0,  999.0,  999.0,  999.0,  999.0,  999.0,  999.0,  999.0,    0.3,  999.0,  999.0,  999.0,   -0.1,  999.0,  999.0
2007/10/09 04:20,   -0.0,   -0.0,   -0.1,   -0.2,   -0.2,   -0.3,   -0.1,    0.0,   -0.1,   -0.2,   -0.1,   -0.1,    0.0,   -0.1,   -0.2,   -0.1,   -0.1,    0.0,    0.1,    0.1,    0.0,   -0.0,   -0.0,    0.0,    0.0,   -0.0,    0.0,   -0.0,    0.0,   -0.0,    0.0,    0.0,    0.0,    0.1,    0.0,    0.0,    0.1,    0.1,    0.1,    0.1,    0.2,    0.1,   -0.0,  999.0,   -0.8,   -0.6,   -0.7,   -0.6,   -0.5,   -0.3,   -0.2,   -0.3,   -0.2,   -0.1,  999.0,  999.0,  999.0,  999.0,  999.0,  999.0,  999.0,    0.0,  999.0,  999.0,  999.0,  999.0,  999.0,  999.0,  999.0,  999.0,    0.3,  999.0,  999.0,  999.0,  999.0,  999.0,  999.0,  999.0,  999.0,  999.0
2007/10/09 04:30,   -0.0,   -0.0,   -0.1,   -0.2,   -0.2,   -0.1,    0.0,   -0.0,   -0.0,   -0.1,   -0.2,   -0.1,   -0.2,    0.0,   -0.0,    0.0,   -0.1,    0.0,    0.0,   -0.0,    0.0,    0.0,    0.0,   -0.0,    0.0,    0.0,   -0.0,   -0.0,   -0.0,   -0.1,   -0.0,   -0.0,   -0.0,   -0.0,    0.1,    0.1,   -0.0,    0.0,    0.0,   -0.0,   -0.0,   -0.1,   -0.1,   -0.1,   -0.2,   -0.2,   -0.4,   -0.5,   -0.3,   -0.4,   -0.3,   -0.1,   -0.1,   -0.0,   -0.1,    0.0,    0.4,  999.0,  999.0,  999.0,  999.0,    0.0,  999.0,  999.0,  999.0,  999.0,  999.0,  999.0,  999.0,  999.0,    0.2,    0.1,  999.0,  999.0,  999.0,  999.0,  999.0,  999.0,  999.0,  999.0
2007/10/09 04:40,    0.0,   -0.0,   -0.1,   -0.2,   -0.2,   -0.2,   -0.1,   -0.1,   -0.1,   -0.1,   -0.0,   -0.0,   -0.0,   -0.0,    0.0,   -0.1,   -0.1,   -0.1,    0.0,   -0.1,   -0.0,   -0.0,   -0.1,   -0.1,   -0.0,    0.0,   -0.0,    0.0,    0.0,    0.0,    0.0,    0.0,    0.0,    0.0,    0.2,    0.0,    0.1,    0.0,   -0.0,    0.0,    0.0,    0.1,   -0.0,    0.0,   -0.0,    0.1,    0.1,   -0.3,   -0.1,   -0.2,   -0.2,   -0.2,   -0.1,   -0.1,    0.1,   -0.0,  999.0,  999.0,  999.0,    0.0,    0.1,    0.2,  999.0,  999.0,  999.0,  999.0,  999.0,  999.0,  999.0,  999.0,  999.0,  999.0,  999.0,  999.0,  999.0,  999.0,  999.0,  999.0,  999.0,  999.0
2007/10/09 04:50,  999.0,  999.0,  999.0,  999.0,   -1.8,   -1.6,   -2.1,   -1.8,   -1.4,   -1.6,   -1.6,   -1.4,   -1.3,   -1.1,   -0.8,   -0.7,   -0.4,   -0.2,   -0.2,   -0.2,    0.1,   -0.1,    0.0,   -0.0,   -0.0,   -0.1,   -0.1,   -0.1,   -0.0,   -0.0,   -0.1,   -0.0,   -0.0,   -0.0,   -0.1,   -0.1,   -0.1,   -0.0,   -0.2,   -0.1,   -0.3,   -0.1,   -0.3,   -0.4,   -0.3,   -0.4,   -0.4,  999.0,  999.0,  999.0,  999.0,   -0.5,   -0.4,   -0.4,   -0.2,  999.0,  999.0,  999.0,  999.0,   -0.0,  999.0,  999.0,  999.0,   -0.3,   -0.5,  999.0,  999.0,  999.0,  999.0,  999.0,  999.0,  999.0,  999.0,  999.0,  999.0,  999.0,  999.0,  999.0,  999.0,  999.0
2007/10/09 05:00,  999.0,  999.0,   -2.1,   -2.1,   -2.3,   -1.8,   -1.7,   -1.5,   -1.4,   -1.2,   -1.1,   -1.1,   -1.2,   -1.3,   -0.9,   -0.8,   -0.6,   -0.4,   -0.4,   -0.3,   -0.3,   -0.0,   -0.1,   -0.1,   -0.0,   -0.0,   -0.0,   -0.0,    0.0,   -0.0,   -0.0,   -0.0,   -0.1,   -0.1,   -0.2,   -0.1,    0.0,    0.1,    0.0,   -0.0,   -0.1,   -0.2,   -0.1,   -0.0,   -0.2,  999.0,  999.0,  999.0,   -0.0,   -0.2,   -0.4,   -0.3,   -0.3,   -0.4,  999.0,  999.0,  999.0,  999.0,    0.0,  999.0,  999.0,    0.1,   -0.2,   -0.2,   -0.1,  999.0,  999.0,  999.0,  999.0,    0.0,   -0.1,  999.0,  999.0,  999.0,  999.0,  999.0,  999.0,  999.0,  999.0,  999.0
2007/10/09 05:10,  999.0,   -3.2,   -2.8,   -2.6,   -2.5,   -2.0,   -2.0,   -2.1,   -2.0,   -2.2,   -1.9,   -1.7,   -1.5,   -1.3,   -1.4,   -1.3,   -1.2,   -1.2,   -0.9,   -0.8,   -0.6,   -0.2,   -0.0,   -0.0,   -0.0,    0.0,    0.0,   -0.0,   -0.1,   -0.0,    0.0,   -0.0,   -0.0,   -0.0,   -0.1,   -0.0,   -0.0,   -0.1,   -0.0,   -0.0,   -0.0,   -0.1,   -0.1,    0.1,   -0.1,    0.1,    0.2,    0.1,    0.0,    0.0,  999.0,   -0.1,   -0.1,    0.0,  999.0,   -0.1,  999.0,  999.0,  999.0,  999.0,  999.0,  999.0,  999.0,  999.0,  999.0,  999.0,  999.0,  999.0,  999.0,  999.0,  999.0,  999.0,  999.0,  999.0,  999.0,  999.0,  999.0,  999.0,  999.0,  999.0
2007/10/09 05:20,  999.0,  999.0,   -2.4,   -2.2,   -2.3,   -2.3,   -2.3,   -2.0,   -1.5,   -1.7,   -1.8,   -1.6,   -1.6,   -1.6,   -1.7,   -1.4,   -1.4,   -1.3,   -1.0,   -0.8,   -0.6,   -0.3,   -0.1,   -0.1,    0.0,    0.0,   -0.0,   -0.1,   -0.1,   -0.0,   -0.0,   -0.0,    0.0,   -0.0,   -0.1,   -0.1,   -0.0,    0.0,    0.1,    0.1,    0.1,   -0.1,   -0.0,   -0.1,    0.0,   -0.1,    0.0,   -0.1,    0.0,   -0.3,   -0.0,   -0.2,   -0.1,   -0.4,  999.0,   -0.1,  999.0,  999.0,  999.0,  999.0,  999.0,   -0.0,  999.0,  999.0,  999.0,  999.0,  999.0,  999.0,  999.0,    0.1,    0.1,  999.0,    0.1,  999.0,  999.0,  999.0,  999.0,  999.0,  999.0,  999.0
2007/10/09 05:30,  999.0,   -0.4,   -1.7,   -2.1,   -2.2,   -2.2,   -2.3,   -2.2,   -2.5,   -2.1,   -2.3,   -2.1,   -2.1,   -2.0,   -1.9,   -1.8,   -1.7,   -1.5,   -1.5,   -1.1,   -1.0,   -0.8,   -0.4,   -0.3,   -0.2,   -0.4,   -0.2,   -0.1,   -0.1,   -0.1,   -0.1,   -0.1,   -0.0,   -0.1,   -0.1,   -0.1,   -0.1,    0.0,   -0.0,    0.1,   -0.0,   -0.1,   -0.2,   -0.3,   -0.1,   -0.0,   -0.0,    0.1,    0.0,   -0.0,    0.1,  999.0,  999.0,  999.0,  999.0,  999.0,  999.0,  999.0,   -0.1,    0.0,   -0.1,    0.0,  999.0,  999.0,  999.0,  999.0,  999.0,  999.0,  999.0,    0.0,  999.0,  999.0,  999.0,  999.0,  999.0,   -0.2,  999.0,  999.0,   -0.9,  999.0
2007/10/09 05:40,   -1.2,   -2.0,   -2.5,   -2.9,   -2.7,   -2.8,   -2.8,   -2.8,   -2.7,   -2.4,   -2.1,   -1.9,   -1.8,   -1.4,   -1.2,   -1.1,   -0.8,   -0.7,   -0.6,   -0.4,   -0.4,   -0.2,   -0.0,   -0.0,   -0.0,   -0.0,    0.0,    0.0,    0.0,    0.0,    0.1,    0.1,    0.1,    0.1,    0.0,    0.0,   -0.0,    0.0,   -0.1,   -0.1,   -0.2,   -0.3,   -0.2,   -0.1,   -0.2,   -0.2,   -0.2,   -0.1,   -0.1,    0.0,   -0.1,   -0.1,  999.0,  999.0,  999.0,  999.0,    0.1,  999.0,  999.0,  999.0,  999.0,  999.0,  999.0,  999.0,  999.0,  999.0,  999.0,  999.0,  999.0,    0.2,  999.0,  999.0,  999.0,  999.0,  999.0,   -0.8,   -0.8,   -0.8,   -0.9,   -0.9
2007/10/09 05:50,   -0.7,   -1.8,   -1.6,   -1.7,   -1.6,   -1.5,   -1.5,   -1.5,   -1.2,   -1.0,   -1.1,   -1.2,   -1.3,   -1.1,   -0.8,   -0.7,   -0.7,   -0.6,   -0.7,   -0.7,   -0.7,   -0.7,   -0.5,   -0.6,   -0.5,   -0.6,   -0.6,   -0.4,   -0.6,   -0.6,   -0.4,   -0.5,   -0.3,   -0.6,   -0.5,   -0.6,   -0.4,   -0.6,   -0.6,   -0.8,   -0.7,   -0.6,   -0.4,   -0.5,   -0.4,   -0.1,   -0.2,   -0.2,   -0.2,   -0.1,  999.0,    0.0,  999.0,  999.0,  999.0,  999.0,  999.0,  999.0,  999.0,   -0.0,    0.1,    0.2,  999.0,  999.0,  999.0,  999.0,  999.0,  999.0,  999.0,  999.0,  999.0,  999.0,  999.0,  999.0,  999.0,   -0.8,   -1.0,   -0.9,   -0.9,   -1.2
2007/10/09 06:00,   -3.0,   -3.3,   -3.4,   -3.6,   -3.7,   -3.6,   -3.7,   -3.7,   -3.7,   -3.6,   -3.5,   -3.6,   -3.4,   -3.5,   -3.4,   -3.3,   -3.3,   -3.2,   -3.0,   -2.5,   -2.5,   -3.3,   -3.1,   -2.9,   -2.3,   -2.5,   -2.5,   -2.4,   -2.2,   -2.2,   -2.1,   -1.9,   -1.9,   -1.8,   -1.8,   -1.7,   -1.6,   -1.5,   -1.4,   -1.4,   -1.4,   -1.1,   -0.9,   -0.9,   -0.8,   -0.5,   -0.5,   -0.2,   -0.3,    0.0,   -0.0,  999.0,    0.0,  999.0,  999.0,  999.0,  999.0,   -0.0,  999.0,  999.0,  999.0,    0.1,  999.0,   -0.1,  999.0,  999.0,  999.0,  999.0,  999.0,  999.0,  999.0,  999.0,  999.0,  999.0,   -0.7,   -0.8,   -0.8,   -0.8,   -0.7,   -0.6
2007/10/09 06:10,   -4.6,   -4.4,   -4.5,   -4.5,   -4.5,   -4.1,   -4.1,   -4.4,   -4.1,   -3.9,   -3.9,   -3.6,   -3.4,   -3.2,   -3.0,   -2.9,   -2.6,   -2.3,   -2.1,   -2.0,   -1.8,   -1.7,   -1.2,   -1.4,   -0.7,   -0.1,   -0.1,  999.0,    0.0,   -0.0,   -0.0,   -0.1,   -0.1,   -0.0,   -0.1,   -0.1,   -0.0,   -0.0,   -0.1,   -0.1,   -0.1,   -0.1,   -0.4,   -0.3,   -0.3,   -0.2,   -0.3,   -0.4,   -0.3,   -0.4,    0.0,   -0.1,   -0.1,  999.0,  999.0,  999.0,   -0.1,  999.0,    0.2,  999.0,   -0.0,  999.0,  999.0,  999.0,  999.0,    0.1,  999.0,    0.3,  999.0,  999.0,  999.0,   -0.3,   -0.7,   -0.7,   -0.9,   -0.9,   -0.9,   -1.0,   -0.9,   -0.9
2007/10/09 06:20,  999.0,   -1.9,   -2.6,   -3.3,   -2.7,   -2.7,   -2.5,   -3.3,   -3.4,   -3.4,   -3.5,   -4.5,   -3.0,   -4.1,   -3.7,   -3.5,   -3.3,   -3.1,   -3.4,   -3.5,   -3.3,   -3.4,   -3.7,   -3.7,   -3.5,   -3.1,   -3.9,   -3.3,   -3.2,   -3.2,   -2.8,   -2.9,   -1.9,   -2.2,   -2.4,   -2.5,   -2.2,   -2.3,   -2.0,   -1.5,   -1.2,   -0.8,   -0.6,   -0.4,   -0.3,   -0.1,   -0.1,   -0.1,   -0.1,   -0.3,    0.0,   -0.1,   -0.1,   -0.3,   -0.1,    0.2,   -0.2,  999.0,    0.0,   -0.0,    0.1,   -0.1,  999.0,  999.0,  999.0,    0.1,   -0.1,   -0.2,   -0.2,  999.0,  999.0,  999.0,   -1.2,   -0.8,   -0.8,   -0.9,   -1.0,   -0.9,   -0.9,   -0.8
2007/10/09 06:30,   -2.3,   -2.5,   -3.8,   -3.7,   -3.8,   -3.1,   -3.5,   -3.7,   -3.0,   -3.2,   -3.2,   -3.4,   -3.4,   -3.2,   -2.6,   -3.5,   -2.9,   -3.3,   -3.2,   -3.6,   -5.0,   -5.4,   -5.2,   -5.1,   -4.4,   -4.9,   -4.9,   -4.8,   -4.9,   -5.0,   -4.9,   -5.0,   -4.9,   -4.7,   -3.8,   -4.8,   -4.6,   -3.5,   -4.5,   -3.5,   -1.8,   -1.3,   -1.0,   -1.1,   -0.9,   -1.1,   -0.9,   -0.2,   -0.3,    0.3,   -0.6,   -0.3,   -0.2,    0.2,    0.1,    0.6,   -0.0,  999.0,   -0.0,  999.0,  999.0,  999.0,  999.0,  999.0,  999.0,  999.0,    0.3,    0.3,  999.0,  999.0,  999.0,  999.0,  999.0,   -0.7,   -0.5,   -0.6,   -0.7,   -0.8,   -0.7,   -0.8
2007/10/09 06:40,    0.0,   -0.0,    0.0,    0.0,   -0.1,   -0.1,   -0.1,   -0.2,   -0.2,   -0.2,   -0.2,   -0.1,   -0.1,    0.0,    0.1,    0.0,    0.1,    0.0,    0.1,    0.0,    0.0,    0.0,   -0.0,   -0.0,   -0.0,    0.0,    0.1,    0.1,    0.1,    0.1,    0.3,    0.2,    0.1,    0.2,    0.2,    0.1,    0.2,    0.2,    0.3,    0.0,    0.2,    0.0,    0.1,   -0.2,   -0.0,    0.0,    0.1,    0.1,    0.2,    0.1,   -0.0,    0.1,  999.0,  999.0,  999.0,    0.2,  999.0,    0.1,  999.0,  999.0,  999.0,    0.0,  999.0,    0.2,  999.0,    0.0,    0.3,    0.5,  999.0,  999.0,  999.0,  999.0,   -1.1,   -1.1,   -0.9,   -0.7,   -0.8,   -0.8,   -0.7,   -0.7
2007/10/09 06:50,    0.0,    0.0,    0.0,    0.0,    0.0,   -0.1,   -0.1,   -0.2,   -0.2,   -0.2,   -0.2,   -0.2,   -0.1,   -0.1,   -0.1,   -0.0,   -0.0,    0.0,    0.1,    0.1,    0.0,    0.1,   -0.0,    0.0,    0.0,    0.1,    0.1,    0.1,    0.2,    0.2,    0.2,    0.1,    0.1,    0.2,    0.2,    0.2,    0.2,    0.2,    0.1,    0.1,    0.1,    0.2,    0.0,    0.1,    0.2,    0.3,    0.1,    0.2,    0.1,    0.1,    0.1,   -0.1,  999.0,   -0.2,    0.1,    0.1,    0.3,  999.0,   -0.1,  999.0,   -0.2,  999.0,    0.1,    0.3,    0.3,    0.3,    0.3,    0.5,    0.7,    0.6,    0.9,  999.0,  999.0,   -0.7,   -0.7,   -0.7,   -0.6,   -0.7,   -0.6,   -0.6
2007/10/09 07:00,   -0.0,    0.0,    0.0,    0.1,    0.0,    0.0,   -0.0,   -0.1,   -0.1,   -0.1,   -0.1,   -0.0,    0.0,    0.1,    0.1,    0.1,    0.2,    0.2,    0.2,    0.2,    0.2,    0.2,    0.1,    0.1,    0.0,    0.1,    0.1,    0.1,    0.2,    0.2,    0.3,    0.2,    0.2,    0.3,    0.3,    0.2,    0.3,    0.3,    0.3,    0.1,    0.2,    0.1,    0.1,    0.2,    0.3,    0.2,  999.0,   -0.2,    0.1,    0.2,   -0.0,  999.0,   -0.1,  999.0,   -0.0,  999.0,   -0.1,  999.0,  999.0,  999.0,    0.2,   -0.0,    0.2,    0.1,   -0.2,   -0.3,   -0.4,   -0.5,   -1.0,   -1.0,   -1.2,   -1.1,   -0.8,   -0.8,   -0.8,   -0.7,   -0.6,   -0.5,   -0.5,   -0.5
2007/10/09 07:10,  999.0,    0.0,   -0.0,    0.0,   -1.3,   -1.3,   -1.6,   -1.6,   -1.5,   -1.9,   -2.0,   -1.9,   -1.9,   -1.8,   -2.2,   -2.4,   -1.5,   -2.0,   -1.9,   -2.7,   -1.0,   -0.9,   -0.6,   -0.7,   -0.6,   -0.6,   -1.2,   -1.0,   -1.0,   -1.0,   -0.9,   -0.9,   -0.5,   -0.6,   -0.6,   -0.8,   -2.0,   -1.9,   -1.8,   -1.7,   -1.5,   -0.8,   -0.7,   -0.7,   -0.6,   -0.9,   -0.9,   -0.6,   -0.7,   -0.9,   -0.7,   -0.9,   -0.7,   -0.8,   -0.8,   -0.8,   -0.7,   -0.5,   -0.5,   -0.5,   -0.3,   -0.5,   -0.3,  999.0,   -0.1,   -0.1,   -0.3,   -0.9,   -0.4,   -0.5,   -0.7,   -0.7,   -0.6,   -0.7,   -0.7,   -0.6,   -0.7,   -0.6,   -0.5,   -0.5
2007/10/09 07:20,  999.0,  999.0,  999.0,   -3.5,   -3.5,   -3.5,   -3.5,   -3.5,   -3.6,   -3.6,   -3.6,   -3.6,   -3.5,   -3.3,   -3.2,   -3.0,   -2.9,   -2.9,   -3.0,   -2.9,   -2.9,   -2.8,   -2.7,   -2.6,   -2.6,   -2.6,   -2.6,   -2.5,   -2.5,   -1.8,   -2.5,   -2.4,   -2.4,   -2.5,   -2.4,   -2.4,   -2.0,   -2.1,   -2.1,   -2.1,   -1.8,   -0.9,   -0.7,   -0.7,   -0.6,   -0.8,   -0.6,   -0.7,   -0.6,   -0.8,   -0.9,   -1.0,   -1.0,   -1.0,   -1.0,   -1.0,   -1.0,   -0.9,   -0.9,  999.0,  999.0,  999.0,  999.0,  999.0,  999.0,  999.0,  999.0,   -0.3,   -0.2,   -0.1,    0.2,   -0.0,    0.0,   -0.0,   -0.2,   -0.4,   -0.6,   -0.4,   -0.3,   -0.1
2007/10/09 07:30,  999.0,  999.0,   -1.9,   -2.8,   -3.0,   -3.2,   -3.3,   -3.4,   -3.6,   -3.5,   -3.5,   -3.4,   -2.2,   -1.4,   -1.2,   -1.0,   -0.8,   -0.8,   -0.2,   -0.1,   -0.0,    0.0,    0.0,    0.0,    0.0,    0.0,    0.1,    0.0,    0.0,   -0.0,   -0.0,    0.0,    0.0,   -0.2,   -0.1,   -0.4,   -0.7,   -0.8,   -0.9,   -0.6,   -0.4,   -0.5,   -0.4,   -0.0,   -0.0,    0.1,    0.1,   -0.0,    0.0,   -0.1,    0.0,    0.0,    0.0,  999.0,  999.0,  999.0,  999.0,  999.0,  999.0,  999.0,   -0.1,   -0.1,   -0.1,   -0.2,    0.0,    0.0,    0.2,    0.2,  999.0,  999.0,  999.0,    0.3,    0.4,  999.0,  999.0,   -0.1,   -0.3,   -0.3,   -0.2,  999.0
2007/10/09 07:40,  999.0,    0.0,    0.0,    0.1,   -0.1,   -0.2,   -1.2,   -0.9,   -1.0,  999.0,  999.0,   -0.2,   -0.2,   -0.1,    0.0,    0.0,    0.1,   -0.0,   -0.1,   -0.1,   -0.0,   -0.0,    0.0,    0.0,    0.0,   -0.0,    0.1,    0.0,    0.1,    0.1,    0.1,    0.1,    0.0,    0.1,    0.1,    0.3,    0.2,    0.2,    0.3,    0.3,    0.2,    0.2,   -0.0,  999.0,    0.4,    0.3,   -0.0,  999.0,  999.0,  999.0,    0.1,    0.0,  999.0,  999.0,  999.0,  999.0,  999.0,  999.0,  999.0,  999.0,    0.2,   -0.3,   -0.5,   -0.4,   -0.4,   -0.7,   -0.8,   -0.6,   -0.5,   -0.4,   -0.4,   -0.3,   -0.2,  999.0,  999.0,  999.0,  999.0,   -0.3,    0.1,   -0.7
2007/10/09 07:50,    0.0,    0.0,   -0.0,    0.0,    0.0,   -0.3,   -0.4,   -0.6,   -0.9,   -1.0,   -1.1,   -0.5,   -0.6,   -0.4,   -0.4,   -0.4,   -0.3,   -0.2,   -0.2,   -0.2,   -0.2,   -0.1,   -0.0,   -0.0,   -0.1,   -0.1,   -0.2,   -0.2,   -0.2,   -0.3,   -0.3,   -0.5,   -0.5,   -0.7,   -0.6,   -0.5,   -0.4,   -0.5,   -0.3,   -0.2,   -0.1,   -0.1,   -0.1,    0.0,    0.1,    0.1,   -0.1,   -0.0,   -0.2,   -0.2,   -0.3,  999.0,   -0.3,   -0.4,  999.0,  999.0,  999.0,   -0.0,   -0.1,   -0.1,   -0.4,  999.0,   -0.4,   -0.1,   -0.3,   -0.3,   -0.1,    0.1,    0.1,   -0.1,    0.0,   -0.1,   -0.3,   -0.7,   -0.7,   -0.7,   -1.0,   -1.0,   -0.8,   -0.8
2007/10/09 08:00,  999.0,  999.0,   -4.0,   -3.1,   -3.4,   -3.3,   -3.5,   -3.5,   -3.6,   -3.3,   -3.5,   -3.2,   -3.2,   -3.3,   -3.2,   -2.9,   -2.9,   -3.1,   -3.3,   -3.0,   -2.9,   -2.9,   -2.7,   -2.8,   -3.1,   -3.1,   -3.0,   -3.0,   -2.9,   -2.7,   -2.8,   -2.5,   -2.7,   -2.6,   -2.6,   -2.3,   -2.1,   -2.2,   -2.0,   -1.8,   -1.8,   -1.4,   -0.9,   -0.5,   -0.4,   -0.6,   -0.1,   -0.2,   -0.1,   -0.2,    0.0,   -0.3,   -0.4,   -0.4,   -0.3,   -0.2,   -0.0,   -0.1,   -0.2,   -0.1,   -0.1,    0.0,    0.1,   -0.1,   -0.3,   -0.2,   -0.1,   -0.0,    0.2,    0.1,    0.0,    0.3,    0.1,   -0.1,   -0.5,   -0.9,   -0.9,   -1.0,   -1.1,   -1.1
2007/10/09 08:10,   -2.2,   -2.9,   -2.6,   -2.4,   -2.7,   -2.9,   -3.1,   -3.0,   -2.9,   -3.2,   -3.0,   -2.8,   -2.7,   -2.5,   -2.4,   -2.4,   -2.3,   -2.2,   -2.1,   -1.9,   -1.7,   -1.5,   -1.2,   -0.9,   -0.8,   -0.7,   -0.6,   -0.4,   -0.2,   -0.2,   -0.2,   -0.3,   -0.6,   -0.7,   -0.6,   -1.1,   -0.8,   -1.6,   -1.2,   -1.4,   -1.3,   -1.3,   -0.7,   -0.6,   -0.6,   -0.7,   -0.8,   -1.1,   -1.5,   -1.7,   -1.5,   -1.5,   -1.9,   -1.7,   -1.6,   -0.6,   -1.3,   -0.6,   -0.8,   -0.4,   -0.4,   -0.3,   -0.5,   -0.6,   -0.5,   -0.4,   -0.6,   -0.5,   -0.6,   -0.7,   -1.0,   -0.1,  999.0,  999.0,   -0.8,   -0.7,   -0.8,   -0.8,   -0.8,   -0.8
2007/10/09 08:20,  999.0,  999.0,   -2.8,   -2.5,   -3.1,   -2.9,   -2.9,   -2.9,   -2.9,   -3.0,   -3.2,   -3.0,   -3.0,   -2.7,   -2.5,   -2.1,   -1.8,   -1.8,   -1.6,   -1.2,   -1.0,   -0.5,   -0.3,   -0.0,   -0.2,   -0.3,   -0.5,   -0.7,   -0.6,   -0.4,   -0.8,   -1.1,   -1.0,   -1.4,   -1.3,   -1.6,   -1.9,   -1.9,   -1.5,   -1.8,   -1.9,   -1.6,   -1.1,   -1.3,   -1.5,   -1.3,   -1.5,   -1.4,   -1.5,   -1.4,   -1.3,   -1.2,   -1.2,   -1.2,   -1.4,   -1.1,   -1.3,   -0.4,   -0.3,    0.2,    0.0,    0.0,   -0.2,   -0.3,   -0.7,   -0.2,   -0.3,   -0.2,   -0.1,   -0.2,   -0.2,  999.0,  999.0,   -0.7,   -0.7,   -0.7,   -0.8,   -1.0,   -0.9,   -0.7
2007/10/09 08:30,  999.0,  999.0,  999.0,  999.0,   -1.5,   -2.0,   -2.1,   -2.2,   -2.2,   -2.2,   -2.1,   -2.3,   -2.5,   -2.2,   -1.8,   -1.6,   -1.2,   -0.5,   -0.1,   -0.1,   -0.3,   -0.2,   -0.1,   -0.1,    0.0,   -0.4,   -0.8,   -0.8,   -0.9,   -0.9,   -1.1,   -1.0,   -0.7,   -1.0,   -0.9,   -0.7,   -0.6,   -0.9,   -1.1,   -1.0,   -1.0,   -0.6,   -0.5,   -0.5,   -0.7,   -0.7,   -1.0,   -1.1,   -1.2,   -1.1,   -1.2,   -0.9,   -1.1,   -1.2,   -1.0,   -0.9,   -0.7,   -0.7,   -0.8,   -0.9,   -0.7,   -0.4,   -0.2,   -0.4,   -0.3,   -0.3,   -0.0,    0.1,    0.1,    0.2,    0.2,  999.0,  999.0,  999.0,  999.0,  999.0,  999.0,  999.0,  999.0,  999.0
2007/10/09 08:40,  999.0,  999.0,  999.0,   -0.3,   -1.8,   -2.3,   -2.4,   -2.4,   -2.7,   -2.7,   -2.6,   -2.5,   -2.3,   -2.3,   -1.5,   -0.8,   -0.6,   -0.4,   -0.5,   -0.5,   -0.6,   -0.6,   -0.0,   -0.2,   -0.1,   -0.2,   -0.3,   -0.2,   -0.1,   -0.0,    0.0,    0.0,   -0.0,   -0.0,    0.1,    0.1,    0.1,    0.0,   -0.2,   -0.1,   -0.2,   -0.3,   -0.7,   -1.1,   -0.9,   -0.9,   -1.0,   -0.8,   -0.7,   -1.0,   -1.0,   -1.0,   -1.2,   -1.2,   -1.1,   -1.2,   -0.8,   -1.0,   -0.8,   -0.5,   -0.5,   -0.7,   -0.4,   -0.3,   -0.4,   -0.5,   -0.6,   -0.4,   -0.2,   -0.0,    0.0,  999.0,  999.0,  999.0,  999.0,  999.0,  999.0,  999.0,  999.0,    0.6
2007/10/09 08:50,  999.0,  999.0,  999.0,  999.0,  999.0,   -2.5,  999.0,   -3.2,   -2.6,   -1.9,   -2.2,   -2.2,   -2.0,   -0.6,   -0.5,    0.0,   -1.6,   -0.7,   -1.5,   -1.5,   -1.5,   -1.5,   -1.9,   -0.0,   -0.1,   -0.2,   -0.1,   -0.1,   -0.1,   -0.1,    0.0,    0.1,    0.1,    0.1,    0.2,    0.2,    0.2,    0.3,    0.2,   -0.0,    0.1,   -0.0,   -0.0,    0.0,  999.0,    0.1,   -0.1,   -0.1,  999.0,   -1.2,   -0.6,   -1.3,   -0.7,   -1.2,   -0.9,   -1.1,   -1.0,   -0.9,   -0.8,   -0.7,   -0.7,   -0.8,   -0.7,   -0.7,   -0.6,   -0.5,   -0.4,   -0.4,   -0.2,   -0.2,   -0.0,    0.2,    0.4,  999.0,  999.0,  999.0,  999.0,  999.0,  999.0,  999.0
2007/10/09 09:00,    0.0,   -1.6,   -2.1,   -2.0,   -2.3,   -2.1,   -2.3,   -2.9,   -3.3,   -3.3,   -3.1,   -3.1,   -3.1,   -2.5,   -2.3,   -1.9,   -1.8,   -1.7,   -1.7,   -2.2,   -2.2,   -2.1,   -1.9,   -1.8,   -1.9,   -2.2,   -1.6,   -1.4,   -1.7,   -1.2,   -1.2,   -1.1,   -1.0,   -0.9,   -0.7,   -0.6,   -0.2,   -0.2,    0.1,    0.0,    0.1,    0.4,    0.2,    0.3,    0.5,    0.1,   -0.0,    0.2,   -0.0,   -0.1,    0.2,  999.0,  999.0,  999.0,  999.0,  999.0,  999.0,    0.3,    0.4,    0.3,    0.2,    0.2,    0.1,    0.0,    0.1,    0.2,    0.2,    0.4,    0.4,    0.5,    0.5,    0.5,    0.4,    0.4,  999.0,  999.0,  999.0,  999.0,  999.0,  999.0
2007/10/09 09:10,   -4.1,   -4.4,   -3.9,   -4.1,   -4.1,   -3.9,   -3.7,   -3.8,   -4.0,   -3.0,   -3.4,   -2.6,   -2.5,   -2.6,   -3.5,   -2.1,  999.0,   -0.2,   -0.2,   -0.2,    0.1,    0.0,    0.0,    0.0,   -1.6,   -1.6,   -1.3,   -1.9,   -1.0,   -0.8,   -0.1,   -0.2,   -0.1,    0.1,   -0.1,    0.1,    0.4,    0.3,    0.4,    0.2,    0.0,    0.1,   -0.0,   -0.0,    0.0,   -0.0,    0.1,    0.1,    0.1,  999.0,  999.0,  999.0,  999.0,    0.4,    0.6,  999.0,  999.0,  999.0,  999.0,  999.0,  999.0,  999.0,   -0.0,  999.0,  999.0,  999.0,   -0.0,    0.2,    0.2,    0.2,    0.1,    0.2,    0.1,    0.2,  999.0,  999.0,  999.0,  999.0,  999.0,  999.0
2007/10/09 09:20,   -0.0,    0.0,   -0.0,   -0.0,   -0.4,    0.1,   -0.2,   -0.3,   -0.1,   -0.2,   -0.2,   -0.0,   -0.0,    0.0,   -0.0,   -0.0,   -0.1,   -0.1,   -0.1,   -0.1,   -0.1,   -0.1,    0.0,   -0.1,    0.0,   -0.0,   -0.0,    0.0,    0.0,   -0.0,   -0.0,    0.0,    0.1,    0.1,    0.3,    0.3,    0.3,    0.3,    0.3,    0.3,    0.4,    0.1,    0.2,    0.2,    0.2,    0.2,    0.1,    0.2,    0.2,   -0.0,   -0.0,  999.0,  999.0,    0.3,  999.0,  999.0,  999.0,  999.0,  999.0,    0.2,    0.2,  999.0,    0.2,    0.3,    0.0,   -0.1,   -0.2,   -0.1,   -0.0,    0.1,    0.1,  999.0,  999.0,  999.0,  999.0,  999.0,  999.0,  999.0,  999.0,  999.0
2007/10/09 09:30,    0.0,   -0.0,    0.0,    0.0,   -0.4,   -0.7,  999.0,   -0.6,   -0.5,   -0.4,   -0.9,   -1.2,   -1.1,   -1.1,  999.0,  999.0,  999.0,   -1.5,   -0.7,   -1.0,   -1.0,   -1.2,   -1.0,   -1.0,   -0.3,   -0.4,   -0.5,   -0.3,   -0.3,   -0.3,   -0.1,   -0.0,    0.0,    0.1,    0.2,    0.1,    0.1,    0.1,    0.1,    0.2,    0.1,    0.2,    0.1,    0.1,    0.1,    0.1,    0.0,    0.0,    0.0,    0.1,    0.1,   -0.1,    0.3,  999.0,  999.0,    0.4,  999.0,    0.3,    0.3,    0.4,    0.4,  999.0,    0.1,  999.0,    0.1,    0.2,   -0.1,   -0.2,   -0.1,    0.2,    0.2,  999.0,  999.0,  999.0,  999.0,  999.0,  999.0,  999.0,  999.0,  999.0
2007/10/09 09:40,   -0.0,   -0.0,   -0.0,   -0.0,   -0.0,    0.0,    0.1,    0.0,   -0.1,   -0.2,   -0.4,   -0.2,   -0.2,   -0.2,   -0.2,   -0.1,   -0.1,   -0.1,   -0.2,   -0.1,   -0.2,   -0.1,   -0.0,   -0.0,   -0.0,   -0.0,    0.0,   -0.0,   -0.1,   -0.0,   -0.0,   -0.0,    0.0,    0.0,    0.0,    0.0,    0.1,    0.1,    0.2,    0.1,    0.2,    0.1,    0.2,    0.1,    0.0,    0.2,    0.2,    0.1,    0.2,    0.1,    0.1,   -0.1,  999.0,  999.0,  999.0,    0.1,    0.1,    0.1,    0.0,   -0.1,   -0.0,   -0.1,   -0.1,   -0.1,    0.1,   -0.1,   -0.1,   -0.3,   -0.0,   -0.0,    0.1,    0.1,  999.0,  999.0,  999.0,  999.0,  999.0,  999.0,  999.0,  999.0
2007/10/09 09:50,    0.0,   -0.0,    0.0,   -0.0,   -0.1,   -0.2,   -0.1,   -0.2,   -0.2,   -0.5,   -0.5,   -0.4,   -0.2,   -0.1,   -0.2,   -0.3,   -0.2,   -0.2,   -0.2,   -0.2,   -0.2,   -0.1,   -0.1,   -0.0,   -0.0,   -0.0,   -0.0,   -0.0,   -0.0,   -0.0,   -0.0,   -0.0,   -0.0,    0.0,    0.0,   -0.0,    0.0,    0.2,    0.3,    0.2,    0.1,    0.2,    0.2,    0.3,    0.1,    0.2,    0.2,    0.2,    0.2,    0.1,    0.1,    0.1,  999.0,  999.0,    0.1,    0.1,    0.1,    0.1,    0.1,    0.0,    0.1,    0.2,    0.2,    0.1,    0.2,    0.1,    0.2,    0.3,    0.2,    0.3,    0.4,    0.2,  999.0,    0.3,  999.0,  999.0,  999.0,  999.0,  999.0,  999.0
2007/10/09 10:00,    0.0,   -0.0,    0.0,   -0.0,   -0.1,   -0.1,   -0.2,   -0.2,   -0.2,   -0.5,   -0.4,   -0.3,   -0.3,   -0.2,   -0.2,   -0.2,   -0.1,   -0.1,    0.0,    0.0,   -0.0,   -0.0,    0.0,   -0.0,    0.0,   -0.0,    0.0,    0.0,    0.1,    0.2,    0.1,    0.0,    0.0,    0.0,    0.0,    0.1,    0.2,    0.1,    0.2,    0.2,    0.1,    0.1,    0.1,    0.1,    0.2,    0.2,    0.1,    0.1,    0.1,    0.0,    0.0,  999.0,  999.0,    0.1,  999.0,  999.0,    0.1,    0.1,    0.2,    0.0,    0.0,  999.0,    0.4,    0.2,    0.2,    0.2,    0.1,    0.2,    0.1,    0.3,    0.1,    0.2,  999.0,  999.0,  999.0,  999.0,   -0.0,  999.0,  999.0,  999.0
2007/10/09 10:10,   -0.0,   -0.0,   -0.0,   -0.0,   -0.2,   -0.1,   -0.1,   -0.1,   -0.2,   -0.4,   -0.4,   -0.3,   -0.2,   -0.2,   -0.2,   -0.2,   -0.2,   -0.3,   -0.2,   -0.2,   -0.1,   -0.1,   -0.0,   -0.0,   -0.0,   -0.1,   -0.1,   -0.1,   -0.0,    0.0,    0.0,    0.0,   -0.0,    0.0,    0.1,    0.1,   -0.0,    0.1,    0.2,    0.2,    0.1,    0.1,    0.1,    0.1,   -0.0,    0.1,    0.0,    0.0,    0.1,    0.1,    0.2,    0.0,    0.1,   -0.3,  999.0,    0.1,    0.1,    0.0,    0.1,   -0.2,  999.0,    0.1,   -0.1,   -0.1,   -0.1,   -0.1,   -0.1,   -0.1,   -0.1,   -0.1,  999.0,   -0.0,  999.0,  999.0,  999.0,  999.0,  999.0,  999.0,  999.0,  999.0
2007/10/09 10:20,   -0.0,   -0.0,    0.0,   -0.1,   -0.0,   -0.0,   -0.1,   -0.1,   -0.1,   -0.2,   -0.3,   -0.1,   -0.1,   -0.2,   -0.1,   -0.1,   -0.2,   -0.2,   -0.1,   -0.1,   -0.1,   -0.0,   -0.0,   -0.0,   -0.0,   -0.0,   -0.0,    0.1,    0.1,    0.0,    0.1,    0.1,    0.0,    0.1,    0.1,    0.1,    0.2,    0.2,    0.2,    0.3,    0.2,    0.1,    0.2,    0.2,    0.2,    0.3,    0.2,    0.1,    0.2,    0.2,    0.2,  999.0,    0.1,  999.0,  999.0,    0.1,    0.1,    0.1,    0.0,   -0.1,   -0.0,   -0.0,   -0.1,   -0.1,   -0.0,   -0.1,   -0.1,   -0.0,   -0.3,  999.0,  999.0,  999.0,  999.0,  999.0,  999.0,  999.0,  999.0,  999.0,  999.0,  999.0
2007/10/09 10:30,    0.0,    0.0,    0.0,    0.0,   -0.1,    0.0,   -0.0,   -0.2,   -0.2,   -0.2,   -0.2,   -0.1,   -0.1,   -0.1,   -0.0,   -0.1,   -0.1,   -0.1,   -0.0,    0.0,   -0.0,   -0.0,   -0.1,   -0.0,   -0.0,    0.0,   -0.0,   -0.0,   -0.0,   -0.0,    0.0,    0.0,    0.0,    0.0,   -0.0,    0.1,    0.1,    0.1,    0.2,    0.1,    0.1,    0.1,    0.1,   -0.0,    0.3,    0.2,   -0.0,    0.1,    0.0,   -0.0,    0.1,    0.1,  999.0,  999.0,    0.3,    0.1,    0.1,    0.1,   -0.0,   -0.2,    0.0,   -0.0,  999.0,   -0.0,    0.0,   -0.1,   -0.1,  999.0,  999.0,  999.0,  999.0,  999.0,  999.0,  999.0,  999.0,  999.0,  999.0,  999.0,  999.0,  999.0
2007/10/09 10:40,    0.0,    0.0,   -0.0,   -0.0,   -0.0,   -0.1,    0.1,   -0.0,    0.1,    0.0,    0.0,    0.1,    0.2,    0.1,    0.2,    0.1,    0.2,    0.2,    0.1,    0.1,    0.1,    0.0,    0.0,   -0.0,    0.0,    0.0,    0.1,    0.1,    0.0,    0.0,    0.1,    0.0,    0.0,    0.1,    0.3,    0.3,    0.3,    0.3,    0.3,    0.3,    0.2,    0.1,   -0.0,    0.1,  999.0,  999.0,  999.0,    0.1,    0.1,    0.0,   -0.0,    0.0,    0.3,  999.0,  999.0,   -0.0,   -0.1,   -0.0,   -0.0,    0.1,  999.0,  999.0,   -0.1,  999.0,  999.0,  999.0,   -0.1,    0.0,  999.0,  999.0,  999.0,  999.0,  999.0,  999.0,  999.0,  999.0,  999.0,  999.0,  999.0,  999.0
2007/10/09 10:50,    0.0,   -0.0,   -0.0,   -0.0,   -0.2,   -0.1,   -0.1,   -0.1,   -0.1,   -0.1,   -0.2,    0.0,    0.1,    0.1,    0.2,    0.2,    0.3,    0.3,    0.3,    0.1,    0.1,    0.0,   -0.0,    0.0,    0.1,    0.1,    0.2,    0.1,    0.1,    0.2,    0.2,    0.2,    0.2,    0.3,    0.4,    0.5,    0.5,    0.3,    0.4,    0.5,    0.5,    0.5,  999.0,    0.4,    0.3,   -0.0,  999.0,  999.0,  999.0,  999.0,    0.1,   -0.1,    0.1,    0.2,    0.0,   -0.0,   -0.1,   -0.1,   -0.2,   -0.4,  999.0,  999.0,  999.0,  999.0,  999.0,  999.0,  999.0,  999.0,  999.0,  999.0,  999.0,  999.0,  999.0,  999.0,  999.0,  999.0,  999.0,  999.0,  999.0,  999.0
2007/10/09 11:00,    0.0,   -0.0,    0.1,   -0.0,   -0.1,    0.0,    0.1,    0.0,    0.2,    0.2,    0.1,    0.2,    0.2,    0.1,    0.1,    0.1,   -0.0,    0.1,    0.1,    0.1,    0.1,    0.1,    0.0,    0.0,    0.0,    0.0,    0.0,    0.1,    0.1,    0.2,    0.2,    0.2,    0.1,    0.3,    0.4,    0.3,    0.4,    0.4,    0.3,    0.2,    0.3,    0.4,    0.1,    0.2,    0.4,    0.2,    0.3,    0.2,    0.1,    0.1,    0.2,    0.3,    0.2,    0.2,  999.0,  999.0,    0.1,    0.1,    0.0,  999.0,  999.0,  999.0,  999.0,  999.0,  999.0,  999.0,  999.0,    0.0,   -0.1,   -0.1,   -0.2,  999.0,  999.0,  999.0,  999.0,  999.0,  999.0,  999.0,  999.0,  999.0
2007/10/09 11:10,   -0.0,   -0.0,    0.1,    0.2,    0.4,    0.5,    0.5,    0.4,    0.4,    0.4,    0.4,    0.5,    0.4,    0.2,    0.3,    0.2,    0.2,    0.1,    0.0,    0.1,    0.2,    0.1,    0.0,   -0.0,   -0.0,    0.0,    0.1,    0.1,    0.1,    0.1,    0.1,    0.2,    0.1,    0.2,    0.3,    0.4,    0.4,    0.4,    0.4,    0.3,    0.3,    0.3,    0.2,    0.3,    0.3,    0.1,    0.2,    0.0,    0.2,    0.0,   -0.0,    0.1,    0.2,    0.2,  999.0,    0.1,    0.0,   -0.0,   -0.0,  999.0,   -0.0,  999.0,  999.0,  999.0,  999.0,  999.0,  999.0,  999.0,  999.0,  999.0,  999.0,  999.0,  999.0,  999.0,  999.0,  999.0,  999.0,  999.0,  999.0,  999.0
2007/10/09 11:20,    0.0,    0.0,    0.0,    0.0,    0.2,    0.5,    0.5,    0.3,    0.3,    0.3,    0.3,    0.4,    0.3,    0.2,    0.2,    0.2,    0.1,    0.1,   -0.0,    0.1,    0.0,    0.2,    0.0,    0.0,    0.0,    0.1,    0.1,    0.1,    0.1,    0.0,    0.0,    0.0,    0.0,    0.1,    0.1,    0.1,    0.2,    0.2,    0.3,    0.4,    0.1,    0.2,    0.2,    0.1,    0.1,    0.2,    0.0,    0.2,    0.0,   -0.1,    0.0,  999.0,   -0.1,  999.0,   -0.2,   -0.0,   -0.1,   -0.1,   -0.1,  999.0,    0.0,  999.0,  999.0,  999.0,  999.0,  999.0,  999.0,   -0.0,  999.0,  999.0,  999.0,  999.0,  999.0,  999.0,  999.0,  999.0,  999.0,  999.0,  999.0,  999.0
2007/10/09 11:30,    0.0,    0.0,    0.0,    0.0,    0.0,    0.2,    0.3,    0.3,    0.3,    0.3,    0.4,    0.4,    0.2,    0.3,    0.1,    0.1,    0.0,    0.1,    0.0,    0.1,    0.1,    0.0,    0.0,    0.1,   -0.0,    0.0,    0.0,    0.1,    0.1,    0.2,    0.2,    0.1,    0.0,    0.1,   -0.3,   -0.4,   -0.6,   -0.7,   -0.6,   -0.4,   -0.5,   -0.5,   -0.6,   -0.5,   -0.3,   -0.0,    0.0,    0.1,    0.0,    0.1,   -0.0,    0.0,    0.0,  999.0,    0.3,    0.1,    0.1,    0.1,    0.1,    0.1,   -0.0,   -0.0,   -0.0,  999.0,  999.0,  999.0,  999.0,  999.0,    0.0,  999.0,  999.0,  999.0,  999.0,  999.0,  999.0,  999.0,  999.0,  999.0,  999.0,  999.0
2007/10/09 11:40,    0.0,   -0.0,    0.0,    0.1,    0.3,    0.7,    0.8,    0.9,    0.8,    0.7,    0.7,    0.7,    0.3,    0.2,    0.2,    0.4,    0.2,    0.2,    0.2,    0.2,    0.1,    0.0,    0.0,    0.0,    0.0,   -0.0,    0.0,    0.0,    0.1,    0.2,    0.2,    0.1,    0.1,    0.1,   -0.2,   -0.4,   -0.5,   -0.7,   -0.6,   -0.6,   -0.5,   -0.4,   -0.3,   -0.3,   -0.3,   -0.3,   -0.1,    0.0,    0.1,    0.2,    0.2,   -0.0,    0.2,    0.2,    0.3,    0.3,    0.3,    0.1,  999.0,  999.0,  999.0,   -0.0,  999.0,  999.0,  999.0,  999.0,  999.0,    0.3,    0.3,  999.0,  999.0,  999.0,  999.0,  999.0,  999.0,  999.0,  999.0,  999.0,  999.0,  999.0
2007/10/09 11:50,  999.0,  999.0,    0.0,    0.1,    0.4,    0.7,    0.9,    0.8,    0.7,    0.4,    0.2,    0.2,    0.1,    0.1,    0.1,    0.0,    0.0,    0.0,   -0.0,   -0.1,   -0.0,   -0.0,    0.0,    0.0,    0.0,    0.1,    0.1,    0.0,    0.2,    0.2,    0.2,    0.2,    0.1,    0.1,    0.0,   -0.1,   -0.2,   -0.3,   -0.3,   -0.5,   -0.5,   -0.5,   -0.2,   -0.1,    0.0,    0.2,    0.3,    0.2,    0.3,    0.3,    0.3,    0.2,   -0.0,    0.2,    0.1,    0.1,    0.2,  999.0,   -0.0,    0.0,  999.0,  999.0,  999.0,  999.0,  999.0,  999.0,    0.1,    0.3,  999.0,  999.0,  999.0,  999.0,  999.0,  999.0,  999.0,  999.0,  999.0,  999.0,  999.0,  999.0
2007/10/09 12:00,    0.0,    0.1,    0.1,    0.1,    0.4,    0.7,    0.8,    0.7,    0.6,    0.5,    0.4,    0.4,    0.4,    0.4,    0.4,    0.4,    0.5,    0.3,    0.3,    0.2,    0.1,    0.2,    0.1,    0.0,    0.0,    0.0,    0.1,    0.0,    0.0,    0.0,    0.0,    0.1,    0.1,    0.1,    0.1,    0.1,    0.0,    0.0,   -0.0,   -0.0,   -0.2,   -0.4,   -0.4,   -0.3,   -0.2,   -0.2,   -0.1,   -0.0,    0.1,    0.1,    0.3,    0.3,    0.3,    0.3,    0.3,    0.3,    0.2,  999.0,    0.2,  999.0,  999.0,  999.0,  999.0,  999.0,  999.0,  999.0,    0.2,  999.0,  999.0,  999.0,  999.0,  999.0,  999.0,  999.0,  999.0,  999.0,  999.0,  999.0,  999.0,  999.0
2007/10/09 12:10,    0.0,    0.0,    0.0,    0.1,    0.2,    0.5,    0.5,    0.6,    0.5,    0.7,    0.5,    0.5,    0.4,    0.3,    0.4,    0.3,    0.2,    0.1,    0.1,    0.2,    0.2,    0.1,    0.0,    0.1,   -0.0,    0.1,    0.0,    0.1,    0.0,    0.0,   -0.0,    0.0,    0.0,    0.0,    0.1,    0.2,    0.2,    0.2,    0.2,    0.1,   -0.0,    0.0,   -0.3,   -0.4,   -0.2,   -0.2,   -0.2,   -0.3,   -0.1,   -0.1,   -0.1,   -0.0,  999.0,   -0.2,   -0.1,   -0.1,  999.0,  999.0,  999.0,  999.0,  999.0,  999.0,  999.0,  999.0,  999.0,    0.1,  999.0,  999.0,  999.0,  999.0,  999.0,  999.0,  999.0,  999.0,  999.0,  999.0,  999.0,  999.0,  999.0,  999.0
2007/10/09 12:20,    0.0,   -0.0,    0.0,    0.0,    0.1,    0.0,    0.3,    0.2,    0.1,    0.2,    0.3,    0.2,    0.3,    0.2,    0.2,    0.2,    0.0,    0.1,    0.0,    0.1,    0.1,    0.0,    0.0,    0.0,    0.0,    0.0,    0.0,    0.0,    0.0,    0.0,   -0.0,    0.0,   -0.0,    0.0,    0.0,   -0.0,   -0.0,    0.0,    0.0,   -0.0,   -0.1,   -0.1,   -0.1,   -0.3,   -0.5,   -0.6,   -0.5,   -0.3,   -0.3,   -0.2,   -0.0,    0.1,    0.1,  999.0,    0.1,    0.1,    0.2,  999.0,  999.0,  999.0,  999.0,  999.0,  999.0,  999.0,  999.0,    0.1,  999.0,  999.0,  999.0,  999.0,  999.0,  999.0,  999.0,  999.0,  999.0,  999.0,  999.0,  999.0,  999.0,  999.0
2007/10/09 12:30,   -0.0,   -0.0,   -0.0,   -0.0,   -0.2,   -0.1,   -0.2,   -0.2,   -0.3,   -0.4,   -0.3,   -0.2,   -0.0,    0.0,    0.0,    0.0,   -0.0,   -0.0,    0.0,    0.0,    0.1,    0.0,    0.1,    0.0,   -0.0,    0.0,    0.0,    0.0,    0.1,    0.0,    0.0,    0.0,    0.0,    0.1,    0.1,    0.2,    0.2,    0.2,    0.2,    0.2,    0.0,    0.2,    0.2,    0.1,    0.0,    0.0,    0.1,   -0.1,   -0.1,   -0.1,    0.0,    0.1,   -0.0,    0.2,    0.3,    0.2,    0.3,    0.3,  999.0,   -0.0,    0.0,    0.0,  999.0,  999.0,    0.3,    0.3,  999.0,  999.0,  999.0,  999.0,  999.0,  999.0,  999.0,  999.0,  999.0,  999.0,  999.0,  999.0,  999.0,  999.0
2007/10/09 12:40,   -0.0,    0.0,   -0.0,   -0.0,   -0.1,   -0.0,   -0.1,   -0.1,   -0.0,   -0.1,   -0.1,   -0.0,    0.0,   -0.0,   -0.0,   -0.0,    0.0,   -0.0,   -0.0,   -0.0,   -0.0,   -0.0,   -0.0,    0.0,    0.0,    0.0,    0.0,    0.0,    0.0,    0.0,    0.0,   -0.0,    0.0,    0.1,    0.0,    0.1,    0.2,    0.3,    0.1,    0.1,    0.1,    0.1,    0.1,    0.0,   -0.1,   -0.1,    0.1,   -0.1,   -0.1,    0.0,    0.1,    0.2,    0.1,    0.3,    0.1,   -0.0,    0.1,    0.1,    0.1,    0.0,   -0.1,    0.0,    0.0,  999.0,   -0.1,    0.0,   -0.0,  999.0,  999.0,    0.1,  999.0,  999.0,  999.0,  999.0,  999.0,  999.0,  999.0,  999.0,  999.0,  999.0
2007/10/09 12:50,  999.0,    0.0,    0.0,    0.0,    0.2,    0.5,    0.4,    0.4,    0.6,    0.6,    0.5,    0.4,    0.3,    0.2,    0.2,    0.1,    0.1,    0.0,    0.1,    0.0,    0.0,    0.0,   -0.0,    0.0,    0.0,    0.0,   -0.0,    0.0,    0.0,   -0.0,   -0.0,   -0.0,    0.0,    0.0,    0.1,    0.1,    0.0,    0.2,    0.2,    0.0,   -0.2,    0.1,    0.1,   -0.2,   -0.3,   -0.2,   -0.0,   -0.0,   -0.1,   -0.1,   -0.0,   -0.0,    0.0,   -0.0,    0.0,    0.1,    0.1,    0.1,   -0.0,  999.0,    0.0,    0.0,  999.0,  999.0,  999.0,   -0.1,   -0.2,   -0.1,  999.0,  999.0,  999.0,  999.0,  999.0,  999.0,  999.0,  999.0,  999.0,  999.0,  999.0,  999.0
2007/10/09 13:00,   -0.0,   -0.0,    0.0,    0.0,    0.2,    0.4,    0.5,    0.6,    0.6,    0.7,    0.7,    0.7,    0.6,    0.4,    0.4,    0.3,    0.2,    0.0,    0.3,    0.2,    0.1,    0.0,    0.0,    0.1,    0.1,    0.1,    0.1,    0.1,    0.0,    0.0,    0.0,    0.1,    0.1,    0.1,    0.0,   -0.0,   -0.1,   -0.2,    0.1,    0.0,    0.0,   -0.2,   -0.3,   -0.1,   -0.2,   -0.4,   -0.5,   -0.6,   -0.6,   -0.5,   -0.3,   -0.1,    0.1,    0.2,    0.1,    0.2,    0.3,   -0.0,   -0.0,    0.1,   -0.0,   -0.1,    0.1,  999.0,  999.0,  999.0,    0.4,  999.0,  999.0,  999.0,  999.0,  999.0,  999.0,  999.0,  999.0,  999.0,  999.0,  999.0,  999.0,  999.0
2007/10/09 13:10,  999.0,   -0.0,    0.1,    0.1,    0.4,    0.6,    0.4,    1.0,    0.9,    0.7,    0.8,    0.8,    0.6,    0.3,    0.4,    0.3,    0.2,    0.1,    0.2,    0.2,    0.2,    0.0,    0.0,    0.1,    0.1,    0.1,    0.0,   -0.0,   -0.0,   -0.0,    0.1,    0.2,    0.2,    0.3,    0.2,    0.1,    0.1,    0.2,   -0.0,    0.1,    0.1,   -0.0,   -0.1,    0.1,    0.2,   -0.1,   -0.6,   -0.8,   -0.8,   -0.7,   -0.6,   -0.4,   -0.2,   -0.2,   -0.1,   -0.2,  999.0,  999.0,  999.0,  999.0,    0.0,  999.0,  999.0,  999.0,  999.0,  999.0,  999.0,  999.0,  999.0,  999.0,  999.0,  999.0,  999.0,  999.0,  999.0,  999.0,  999.0,  999.0,  999.0,    0.4
2007/10/09 13:20,    0.0,    0.0,    0.0,    0.1,    0.2,    0.2,    0.3,    0.5,    0.5,    0.4,    0.4,    0.4,    0.4,    0.3,    0.3,    0.2,    0.1,    0.1,    0.1,    0.0,    0.0,    0.0,    0.0,    0.0,    0.0,    0.1,    0.1,    0.0,   -0.0,    0.0,   -0.0,    0.0,    0.1,    0.0,    0.0,   -0.0,    0.0,    0.2,    0.2,    0.2,    0.2,    0.1,    0.3,    0.3,    0.3,  999.0,    0.2,    0.2,    0.2,   -0.0,  999.0,   -0.2,   -0.0,   -0.0,   -0.1,  999.0,   -0.2,  999.0,  999.0,   -0.0,   -0.0,  999.0,  999.0,  999.0,  999.0,  999.0,  999.0,  999.0,  999.0,  999.0,  999.0,  999.0,  999.0,  999.0,  999.0,  999.0,  999.0,  999.0,  999.0,  999.0
2007/10/09 13:30,   -0.0,    0.0,    0.0,    0.0,    0.1,    0.2,    0.3,    0.4,    0.4,    0.4,    0.6,    0.6,    0.5,    0.4,    0.2,    0.1,    0.1,   -0.0,    0.1,    0.0,    0.0,    0.0,    0.0,    0.0,    0.0,   -0.0,    0.0,    0.0,   -0.0,   -0.0,    0.0,   -0.0,   -0.0,    0.0,   -0.0,   -0.0,   -0.2,   -0.2,   -0.2,   -0.1,   -0.1,   -0.1,   -0.1,   -0.1,   -0.2,   -0.1,   -0.0,   -0.1,    0.0,    0.1,    0.2,    0.1,    0.1,    0.2,    0.3,  999.0,   -0.0,  999.0,   -0.0,   -0.0,    0.1,  999.0,   -0.1,  999.0,  999.0,  999.0,  999.0,  999.0,  999.0,  999.0,  999.0,  999.0,  999.0,  999.0,  999.0,  999.0,  999.0,  999.0,  999.0,  999.0
2007/10/09 13:40,    0.0,    0.0,    0.0,    0.1,    0.2,    0.3,    0.3,    0.6,    0.8,    0.8,    0.8,    0.7,    0.4,    0.4,    0.2,    0.2,    0.3,    0.3,    0.2,    0.1,   -0.0,    0.0,    0.0,    0.0,    0.0,   -0.0,   -0.0,    0.0,    0.1,    0.0,    0.0,    0.0,    0.0,    0.1,    0.1,    0.1,    0.1,    0.2,    0.1,    0.2,   -0.0,    0.1,    0.1,    0.1,    0.1,    0.2,    0.1,    0.2,    0.2,    0.2,    0.2,    0.3,    0.4,    0.5,    0.5,  999.0,    0.2,  999.0,  999.0,  999.0,   -0.1,   -0.0,  999.0,  999.0,  999.0,  999.0,  999.0,  999.0,  999.0,  999.0,  999.0,  999.0,  999.0,  999.0,    0.1,  999.0,  999.0,  999.0,  999.0,  999.0
2007/10/09 13:50,    0.0,    0.1,    0.0,    0.0,    0.1,    0.3,    0.3,    0.4,    0.7,    0.8,    0.7,    0.5,    0.5,    0.6,    0.5,    0.5,    0.4,    0.2,    0.4,    0.2,    0.3,    0.2,    0.1,    0.0,    0.1,    0.0,    0.2,    0.2,    0.2,    0.2,    0.1,    0.1,    0.0,    0.1,    0.0,    0.0,    0.1,    0.2,    0.2,  999.0,   -0.1,    0.0,    0.2,    0.2,    0.2,    0.1,    0.2,    0.2,    0.1,    0.2,    0.1,    0.1,    0.1,    0.2,    0.2,  999.0,    0.3,  999.0,  999.0,  999.0,  999.0,  999.0,   -0.1,  999.0,  999.0,    0.0,  999.0,  999.0,  999.0,  999.0,  999.0,  999.0,  999.0,  999.0,  999.0,  999.0,  999.0,  999.0,    0.1,  999.0
2007/10/09 14:00,   -0.0,    0.0,    0.0,    0.0,    0.0,    0.2,    0.3,    0.2,    0.6,    0.6,    0.6,    0.5,    0.3,    0.4,    0.4,    0.2,    0.1,    0.1,    0.3,    0.2,    0.1,    0.3,    0.2,    0.1,    0.1,    0.2,    0.1,    0.2,    0.1,    0.2,    0.1,    0.1,    0.0,    0.1,    0.2,    0.1,    0.2,    0.3,    0.5,  999.0,    0.1,    0.1,    0.2,    0.2,    0.1,    0.1,    0.3,    0.3,    0.2,    0.3,    0.2,    0.1,    0.2,  999.0,  999.0,  999.0,  999.0,  999.0,  999.0,  999.0,  999.0,  999.0,  999.0,  999.0,  999.0,   -0.1,  999.0,  999.0,  999.0,  999.0,  999.0,  999.0,  999.0,  999.0,  999.0,  999.0,  999.0,  999.0,  999.0,  999.0
2007/10/09 14:10,  999.0,  999.0,  999.0,  999.0,  999.0,  999.0,  999.0,  999.0,  999.0,  999.0,  999.0,  999.0,  999.0,  999.0,  999.0,  999.0,  999.0,  999.0,  999.0,  999.0,  999.0,  999.0,  999.0,  999.0,  999.0,  999.0,  999.0,  999.0,  999.0,  999.0,  999.0,  999.0,  999.0,  999.0,  999.0,  999.0,  999.0,  999.0,  999.0,  999.0,  999.0,  999.0,  999.0,  999.0,  999.0,  999.0,  999.0,  999.0,  999.0,  999.0,  999.0,  999.0,  999.0,  999.0,  999.0,  999.0,  999.0,  999.0,  999.0,  999.0,  999.0,  999.0,  999.0,  999.0,  999.0,  999.0,  999.0,  999.0,  999.0,  999.0,  999.0,  999.0,  999.0,  999.0,  999.0,  999.0,  999.0,  999.0,  999.0,  999.0
2007/10/09 14:20,  999.0,    0.0,   -0.0,   -0.0,    0.1,    0.2,    0.3,    0.3,  999.0,    0.4,    0.4,    0.5,    0.4,    0.3,    0.2,    0.3,    0.3,    0.2,    0.3,    0.3,    0.2,    0.0,    0.0,   -0.0,    0.0,   -0.1,   -0.1,   -0.0,   -0.1,   -0.1,   -0.0,    0.1,    0.2,    0.2,    0.2,    0.3,    0.3,    0.3,  999.0,    0.0,    0.2,    0.0,    0.2,    0.1,    0.2,    0.1,    0.1,    0.2,    0.2,    0.2,   -0.0,    0.1,    0.0,  999.0,  999.0,  999.0,  999.0,  999.0,  999.0,  999.0,  999.0,  999.0,  999.0,  999.0,  999.0,  999.0,  999.0,  999.0,  999.0,  999.0,  999.0,  999.0,  999.0,  999.0,  999.0,  999.0,  999.0,  999.0,  999.0,  999.0
2007/10/09 14:30,  999.0,    0.0,    0.0,    0.1,    0.2,    0.3,    0.2,    0.3,    0.5,    0.5,    0.5,    0.5,    0.4,    0.4,    0.3,    0.4,    0.4,    0.4,    0.4,    0.3,    0.1,    0.2,    0.1,    0.2,    0.3,    0.3,    0.3,    0.2,    0.2,    0.1,    0.1,    0.1,    0.2,    0.2,    0.2,    0.3,    0.3,    0.2,    0.2,  999.0,   -0.0,    0.1,    0.0,   -0.0,  999.0,    0.1,    0.2,    0.0,    0.1,    0.0,    0.0,    0.1,    0.3,  999.0,  999.0,  999.0,  999.0,  999.0,  999.0,  999.0,  999.0,  999.0,  999.0,  999.0,  999.0,  999.0,    0.3,  999.0,  999.0,  999.0,  999.0,  999.0,  999.0,  999.0,  999.0,    0.2,  999.0,  999.0,  999.0,  999.0
2007/10/09 14:40,   -0.0,    0.0,    0.0,    0.2,    0.3,    0.5,    0.6,    0.7,    0.6,    0.7,    0.7,    0.7,    0.7,    0.5,    0.3,    0.2,    0.2,    0.3,    0.3,    0.3,   -0.2,   -0.2,   -0.1,   -0.0,   -0.1,   -0.0,   -0.2,   -0.2,   -0.1,   -0.1,   -0.0,   -0.1,    0.1,    0.1,    0.1,    0.2,    0.0,    0.0,   -0.1,  999.0,   -0.1,   -0.1,   -0.0,   -0.1,  999.0,   -0.0,   -0.1,   -0.2,   -0.1,    0.1,  999.0,   -0.0,   -0.0,  999.0,  999.0,   -0.1,  999.0,  999.0,  999.0,  999.0,  999.0,  999.0,  999.0,  999.0,  999.0,  999.0,  999.0,  999.0,  999.0,  999.0,  999.0,  999.0,  999.0,  999.0,  999.0,    0.3,  999.0,  999.0,  999.0,  999.0
2007/10/09 14:50,  999.0,   -0.0,    0.0,   -0.1,    0.0,    0.1,    0.1,    0.2,    0.4,    0.6,    0.7,    0.7,    0.6,    0.5,    0.5,    0.3,    0.3,    0.3,    0.3,    0.4,    0.3,    0.2,    0.1,    0.1,    0.1,    0.1,    0.1,   -0.0,   -0.0,    0.0,    0.0,    0.0,    0.1,   -0.0,    0.1,    0.1,   -0.0,    0.0,   -0.1,   -0.0,   -0.1,   -0.2,   -0.0,  999.0,   -0.3,   -0.4,  999.0,  999.0,   -0.7,  999.0,  999.0,  999.0,  999.0,   -0.5,  999.0,  999.0,  999.0,  999.0,  999.0,  999.0,  999.0,  999.0,  999.0,   -0.0,  999.0,  999.0,  999.0,  999.0,  999.0,   -0.0,  999.0,  999.0,  999.0,  999.0,  999.0,  999.0,  999.0,  999.0,  999.0,  999.0
2007/10/09 15:00,   -0.0,   -0.0,   -0.0,    0.0,   -0.0,   -0.0,    0.1,    0.3,    0.4,    0.4,    0.3,    0.1,    0.2,    0.1,   -0.0,    0.1,    0.0,    0.0,    0.1,    0.1,    0.1,    0.1,    0.0,    0.0,    0.0,    0.1,    0.1,    0.0,   -0.0,    0.0,    0.0,    0.1,    0.1,    0.0,    0.1,    0.2,    0.0,    0.1,    0.0,    0.0,   -0.3,   -0.2,   -0.2,  999.0,  999.0,   -0.5,  999.0,  999.0,  999.0,  999.0,   -0.4,   -0.6,  999.0,   -0.4,  999.0,  999.0,  999.0,  999.0,  999.0,  999.0,  999.0,  999.0,  999.0,   -0.0,  999.0,  999.0,  999.0,  999.0,  999.0,  999.0,  999.0,  999.0,  999.0,  999.0,  999.0,  999.0,  999.0,  999.0,  999.0,  999.0
2007/10/09 15:10,  999.0,    0.0,    0.1,    0.1,    0.1,    0.2,    0.0,   -0.0,    0.0,    0.1,    0.0,   -0.0,    0.0,   -0.1,    0.0,   -0.1,   -0.1,   -0.1,   -0.0,   -0.0,    0.0,   -0.0,   -0.0,   -0.0,    0.0,   -0.0,   -0.0,   -0.1,   -0.0,   -0.0,   -0.0,    0.0,   -0.0,   -0.0,    0.1,   -0.0,   -0.1,   -0.1,   -0.2,   -0.2,   -0.1,   -0.1,  999.0,  999.0,  999.0,  999.0,   -0.6,   -0.6,   -0.0,  999.0,   -0.6,  999.0,  999.0,  999.0,   -0.5,   -0.2,  999.0,  999.0,  999.0,  999.0,  999.0,  999.0,  999.0,  999.0,  999.0,  999.0,  999.0,  999.0,  999.0,  999.0,  999.0,   -0.0,  999.0,  999.0,  999.0,  999.0,  999.0,  999.0,  999.0,  999.0
2007/10/09 15:20,    0.0,    0.0,    0.1,    0.1,    0.2,    0.5,    0.4,    0.5,    0.4,    0.3,    0.4,    0.4,    0.4,    0.3,   -0.0,   -0.1,   -0.1,   -0.0,    0.1,    0.2,    0.2,    0.0,    0.1,   -0.1,   -0.1,   -0.0,    0.2,    0.0,    0.1,    0.1,    0.2,    0.2,    0.2,    0.2,    0.1,    0.1,    0.1,    0.0,   -0.1,    0.0,   -0.0,   -0.1,  999.0,  999.0,  999.0,   -0.1,   -0.2,  999.0,   -0.1,    0.0,   -0.3,  999.0,  999.0,   -0.2,   -0.2,  999.0,  999.0,  999.0,  999.0,  999.0,   -0.0,   -0.3,  999.0,  999.0,  999.0,  999.0,  999.0,  999.0,  999.0,  999.0,  999.0,   -0.1,  999.0,  999.0,  999.0,  999.0,  999.0,  999.0,  999.0,  999.0
2007/10/09 15:30,    0.0,    0.1,    0.1,    0.1,    0.3,    0.6,    0.6,    0.5,    0.5,    0.5,    0.4,    0.5,    0.5,    0.2,   -0.5,   -0.6,   -0.6,   -0.8,   -0.6,   -0.4,   -0.3,   -0.2,   -0.1,   -0.1,   -0.1,   -0.0,   -0.1,   -0.0,    0.0,    0.0,    0.1,    0.2,    0.3,    0.4,    0.3,    0.2,    0.1,    0.1,    0.0,    0.1,    0.1,  999.0,  999.0,  999.0,  999.0,  999.0,  999.0,  999.0,    0.1,    0.0,  999.0,  999.0,    0.1,    0.1,  999.0,  999.0,  999.0,  999.0,  999.0,  999.0,  999.0,   -0.1,  999.0,  999.0,  999.0,  999.0,  999.0,  999.0,  999.0,  999.0,  999.0,  999.0,  999.0,  999.0,  999.0,  999.0,  999.0,  999.0,  999.0,  999.0
2007/10/09 15:40,  999.0,    0.2,    0.3,    0.3,    0.4,    0.4,    0.4,    0.2,    0.1,    0.2,    0.1,    0.3,    0.3,   -0.0,   -0.6,   -0.5,   -0.4,   -0.2,   -0.1,    0.1,    0.1,    0.2,    0.1,    0.1,    0.1,    0.2,    0.2,    0.2,    0.4,    0.3,    0.4,    0.2,    0.0,    0.2,    0.2,    0.2,    0.2,    0.2,    0.1,    0.1,   -0.0,  999.0,  999.0,  999.0,  999.0,  999.0,  999.0,  999.0,  999.0,  999.0,  999.0,  999.0,  999.0,  999.0,    0.3,  999.0,  999.0,  999.0,  999.0,  999.0,  999.0,  999.0,  999.0,  999.0,  999.0,  999.0,  999.0,    0.0,  999.0,  999.0,    0.3,   -0.1,  999.0,  999.0,  999.0,  999.0,  999.0,  999.0,  999.0,  999.0
2007/10/09 15:50,    0.0,    0.1,    0.1,    0.1,    0.1,    0.1,   -0.0,   -0.1,   -0.1,   -0.2,   -0.1,    0.0,    0.1,   -0.1,   -0.1,   -0.1,   -0.1,    0.2,    0.4,    0.4,    0.2,    0.2,    0.2,    0.2,    0.1,    0.2,    0.2,    0.0,   -0.1,   -0.0,   -0.0,   -0.0,   -0.0,    0.0,    0.1,    0.1,    0.1,    0.2,    0.2,  999.0,    0.1,  999.0,  999.0,  999.0,  999.0,  999.0,  999.0,  999.0,  999.0,    0.1,  999.0,  999.0,  999.0,    0.1,  999.0,  999.0,  999.0,  999.0,  999.0,  999.0,    0.2,  999.0,  999.0,  999.0,  999.0,  999.0,  999.0,  999.0,  999.0,  999.0,  999.0,    0.2,  999.0,  999.0,  999.0,  999.0,  999.0,  999.0,  999.0,  999.0
2007/10/09 16:00,   -0.0,   -0.0,    0.0,    0.0,    0.0,   -0.0,   -0.0,   -0.0,   -0.0,   -0.0,   -0.1,   -0.0,    0.0,    0.1,    0.1,    0.0,   -0.3,    0.0,   -0.1,   -0.3,   -0.4,   -0.3,   -0.1,   -0.1,   -0.1,   -0.1,   -0.1,   -0.2,   -0.3,   -0.3,   -0.3,   -0.1,    0.1,    0.3,    0.3,    0.2,    0.4,    0.4,    0.2,    0.5,    0.3,    0.3,    0.1,  999.0,  999.0,    0.4,    0.2,    0.1,  999.0,    0.0,  999.0,  999.0,    0.5,    0.7,  999.0,  999.0,  999.0,  999.0,  999.0,  999.0,    0.4,    0.5,    0.3,  999.0,    0.3,  999.0,  999.0,  999.0,  999.0,  999.0,    0.3,    0.3,  999.0,  999.0,  999.0,  999.0,  999.0,  999.0,  999.0,  999.0
2007/10/09 16:10,  999.0,    0.0,    0.0,    0.1,    0.1,    0.1,    0.1,    0.1,    0.1,    0.2,    0.4,    0.4,    0.4,    0.3,    0.4,    0.4,    0.3,    0.2,    0.1,    0.2,    0.2,    0.2,    0.1,    0.0,    0.0,   -0.1,   -0.0,   -0.1,   -0.2,   -0.2,   -0.2,   -0.2,    0.0,    0.2,    0.2,    0.2,    0.2,    0.3,    0.4,    0.4,  999.0,  999.0,  999.0,   -0.0,  999.0,  999.0,    0.2,    0.1,  999.0,  999.0,  999.0,  999.0,  999.0,  999.0,  999.0,  999.0,  999.0,  999.0,  999.0,  999.0,  999.0,    0.5,  999.0,  999.0,    0.2,  999.0,  999.0,  999.0,  999.0,  999.0,    0.1,    0.1,    0.3,  999.0,  999.0,  999.0,  999.0,  999.0,  999.0,  999.0
2007/10/09 16:20,  999.0,    0.0,    0.0,    0.1,    0.1,    0.2,    0.2,    0.2,    0.3,    0.2,    0.2,    0.3,    0.3,    0.4,    0.4,    0.4,    0.5,    0.2,    0.2,    0.2,    0.3,    0.3,    0.2,    0.1,    0.1,    0.1,    0.1,    0.0,   -0.1,   -0.2,   -0.3,   -0.2,   -0.0,   -0.0,   -0.1,   -0.0,   -0.1,   -0.1,   -0.1,   -0.0,  999.0,  999.0,   -0.1,   -0.0,  999.0,    0.0,  999.0,   -0.1,    0.0,  999.0,  999.0,  999.0,    0.1,  999.0,  999.0,  999.0,  999.0,  999.0,  999.0,  999.0,  999.0,  999.0,  999.0,  999.0,  999.0,  999.0,   -0.0,   -0.1,  999.0,  999.0,  999.0,  999.0,  999.0,  999.0,  999.0,  999.0,  999.0,  999.0,  999.0,  999.0
2007/10/09 16:30,    0.0,    0.0,    0.0,   -0.0,   -0.0,    0.0,   -0.0,   -0.1,    0.1,    0.1,    0.1,    0.2,    0.3,    0.3,    0.5,    0.5,    0.3,    0.4,    0.3,    0.3,    0.3,    0.2,    0.1,    0.0,   -0.0,    0.0,    0.1,    0.0,   -0.0,   -0.0,   -0.0,   -0.1,   -0.0,   -0.1,   -0.2,   -0.2,   -0.2,   -0.1,   -0.2,  999.0,  999.0,   -0.1,   -0.1,  999.0,  999.0,  999.0,   -0.0,  999.0,   -0.1,  999.0,  999.0,  999.0,  999.0,  999.0,  999.0,  999.0,  999.0,  999.0,  999.0,  999.0,  999.0,  999.0,  999.0,  999.0,  999.0,  999.0,  999.0,  999.0,   -0.0,    0.1,  999.0,  999.0,    0.1,  999.0,  999.0,  999.0,  999.0,  999.0,  999.0,  999.0
2007/10/09 16:40,  999.0,    0.0,    0.0,  999.0,    0.0,    0.1,    0.1,    0.2,    0.2,    0.1,    0.0,    0.2,    0.3,    0.2,    0.3,    0.4,    0.3,    0.3,    0.3,    0.3,    0.3,    0.2,    0.0,    0.0,    0.1,    0.1,    0.1,    0.1,    0.1,    0.1,    0.1,    0.1,    0.1,    0.1,    0.1,    0.0,    0.0,   -0.0,    0.0,  999.0,  999.0,  999.0,  999.0,   -0.2,   -0.1,   -0.0,   -0.1,  999.0,   -0.3,  999.0,  999.0,  999.0,  999.0,   -0.1,   -0.0,   -0.1,  999.0,  999.0,  999.0,  999.0,  999.0,  999.0,  999.0,  999.0,  999.0,  999.0,  999.0,   -0.0,    0.0,    0.0,    0.0,   -0.4,   -0.2,   -0.7,   -0.8,   -0.8,   -1.0,   -0.8,   -0.8,   -0.9
2007/10/09 16:50,    0.0,    0.0,    0.0,    0.1,    0.3,    0.3,    0.3,    0.2,    0.4,    0.4,    0.3,    0.3,    0.3,    0.3,    0.4,    0.3,    0.3,    0.3,    0.3,    0.3,    0.1,    0.2,    0.0,    0.0,    0.1,    0.2,    0.3,    0.2,    0.1,    0.2,    0.2,    0.1,    0.0,    0.1,    0.2,    0.2,    0.1,    0.2,  999.0,  999.0,  999.0,    0.1,  999.0,  999.0,  999.0,  999.0,   -0.0,    0.0,   -0.0,   -0.1,    0.1,   -0.1,   -0.1,  999.0,   -0.0,   -0.1,  999.0,  999.0,  999.0,  999.0,  999.0,  999.0,  999.0,  999.0,  999.0,   -0.1,   -0.1,   -0.2,   -0.0,  999.0,  999.0,   -0.5,   -0.3,   -0.5,  999.0,  999.0,  999.0,  999.0,  999.0,  999.0
2007/10/09 17:00,    0.1,    0.1,    0.0,    0.1,    0.1,    0.2,    0.2,    0.2,    0.3,    0.2,    0.2,    0.0,    0.1,    0.1,    0.1,    0.0,    0.0,    0.1,    0.1,    0.1,    0.0,    0.1,    0.0,    0.1,    0.0,    0.1,    0.1,    0.1,    0.1,    0.0,    0.0,    0.0,    0.0,    0.1,    0.1,   -0.0,    0.1,    0.2,    0.2,  999.0,  999.0,    0.1,  999.0,  999.0,  999.0,  999.0,  999.0,  999.0,    0.3,    0.3,    0.1,    0.2,  999.0,   -0.0,    0.0,  999.0,  999.0,  999.0,  999.0,  999.0,  999.0,  999.0,  999.0,  999.0,  999.0,   -0.1,   -0.2,  999.0,  999.0,   -0.4,   -0.6,   -0.8,  999.0,  999.0,  999.0,  999.0,  999.0,  999.0,  999.0,  999.0
2007/10/09 17:10,  999.0,    0.0,    0.0,    0.0,   -0.0,    0.0,    0.1,    0.2,    0.2,    0.4,    0.4,    0.3,    0.5,    0.5,    0.3,    0.4,    0.3,    0.3,    0.3,    0.2,    0.0,    0.0,   -0.0,    0.0,    0.0,    0.2,    0.4,    0.3,    0.1,    0.2,    0.1,    0.0,    0.1,    0.1,    0.1,    0.1,    0.2,    0.1,   -0.1,  999.0,  999.0,  999.0,  999.0,  999.0,  999.0,  999.0,    0.0,  999.0,    0.2,    0.1,    0.1,  999.0,  999.0,  999.0,   -0.1,  999.0,  999.0,  999.0,  999.0,  999.0,  999.0,  999.0,  999.0,  999.0,  999.0,  999.0,  999.0,   -0.1,   -0.2,   -0.5,   -0.7,   -0.7,   -0.9,   -1.2,   -1.2,   -1.1,   -1.2,   -1.1,   -1.0,   -1.0
2007/10/09 17:20,    0.0,    0.1,    0.1,    0.0,    0.1,    0.1,    0.2,    0.4,    0.5,    0.4,    0.3,    0.4,    0.4,    0.3,    0.3,    0.2,    0.0,    0.2,    0.2,    0.2,    0.1,    0.0,    0.0,    0.1,    0.1,    0.2,    0.3,    0.2,    0.1,    0.2,    0.2,    0.1,    0.1,    0.1,    0.1,    0.1,    0.3,    0.3,  999.0,  999.0,  999.0,   -0.0,  999.0,  999.0,  999.0,   -0.0,    0.0,    0.2,    0.3,    0.3,    0.3,   -0.0,  999.0,  999.0,    0.3,  999.0,  999.0,  999.0,  999.0,  999.0,  999.0,  999.0,  999.0,  999.0,  999.0,  999.0,    0.1,   -0.9,   -1.2,   -1.1,   -1.3,   -1.3,   -1.4,   -1.4,   -1.4,   -1.3,   -1.2,   -1.1,   -1.1,   -1.0
2007/10/09 17:30,  999.0,    0.0,    0.0,   -0.0,    0.0,   -0.1,    0.2,    0.4,    0.2,    0.3,    0.2,    0.3,    0.3,    0.3,    0.4,    0.3,    0.1,    0.2,    0.2,    0.1,    0.1,    0.0,    0.0,    0.1,    0.1,    0.2,    0.3,    0.2,    0.1,    0.2,    0.3,    0.1,    0.1,    0.2,    0.3,    0.2,    0.4,    0.4,    0.1,  999.0,  999.0,  999.0,  999.0,  999.0,  999.0,  999.0,    0.0,  999.0,    0.1,    0.1,   -0.1,    0.1,  999.0,  999.0,  999.0,  999.0,  999.0,  999.0,  999.0,  999.0,  999.0,  999.0,  999.0,  999.0,  999.0,   -0.1,   -0.5,   -0.8,   -1.0,   -1.3,   -1.3,   -1.3,   -1.4,   -1.2,   -1.2,   -1.2,   -1.1,   -1.1,   -1.0,   -1.0
2007/10/09 17:40,   -0.0,    0.0,    0.0,    0.2,    0.3,    0.4,    0.5,    0.8,    0.7,    0.5,    0.3,    0.5,    0.5,    0.6,    0.6,    0.5,    0.3,    0.4,    0.2,    0.0,   -0.0,    0.1,    0.1,    0.0,    0.1,    0.5,    0.6,    0.4,    0.2,    0.6,    0.4,    0.4,    0.2,    0.2,    0.4,    0.4,    0.6,    0.6,    0.6,  999.0,  999.0,  999.0,   -0.0,  999.0,  999.0,   -0.0,   -0.0,    0.0,    0.1,    0.3,    0.2,    0.2,    0.4,  999.0,  999.0,  999.0,  999.0,  999.0,  999.0,  999.0,  999.0,  999.0,  999.0,  999.0,  999.0,    0.1,   -0.1,   -0.7,   -0.8,   -0.6,   -0.6,   -0.3,   -1.3,   -1.3,   -1.4,   -1.3,   -1.0,   -0.9,   -1.0,   -0.8
2007/10/09 17:50,  999.0,    0.0,    0.1,    0.3,    0.4,    0.5,    0.7,    0.9,    0.8,    1.0,    0.5,    0.7,    1.0,    1.0,    0.8,    0.8,    0.5,    0.5,    0.1,    0.0,    0.2,    0.2,    0.0,    0.0,    0.1,    0.3,    0.5,    0.2,    0.2,    0.5,    0.4,    0.3,    0.1,    0.3,    0.4,    0.3,    0.4,    0.4,    0.6,  999.0,  999.0,  999.0,    0.0,  999.0,  999.0,  999.0,   -0.0,    0.1,  999.0,    0.7,    0.6,  999.0,    0.4,  999.0,  999.0,  999.0,  999.0,  999.0,  999.0,    0.2,    0.0,    0.3,   -0.2,   -0.0,   -0.4,   -0.8,   -0.7,   -1.0,   -1.1,   -1.2,   -1.2,   -1.2,   -1.0,   -1.0,   -1.1,   -1.0,   -0.9,   -0.9,   -0.9,   -0.8
2007/10/09 18:00,    0.0,    0.0,    0.3,    0.5,    1.0,    0.8,    0.8,    1.3,    0.9,    0.6,    0.7,    0.5,    0.6,    0.9,    0.7,    0.5,    0.4,    0.3,    0.2,    0.3,    0.3,    0.1,    0.0,    0.1,    0.1,    0.2,    0.3,    0.2,    0.2,    0.2,    0.3,    0.1,    0.1,    0.1,    0.2,    0.1,    0.1,    0.3,    0.4,    0.3,  999.0,  999.0,  999.0,  999.0,  999.0,    0.0,    0.0,    0.1,    0.0,    0.4,    0.3,  999.0,    0.2,    0.1,    0.0,  999.0,  999.0,  999.0,   -0.0,    0.1,   -0.0,   -0.1,   -0.1,   -0.1,   -0.2,   -0.3,   -0.4,   -0.7,   -0.9,   -0.9,   -1.1,   -1.1,   -1.1,   -1.0,   -1.1,   -1.0,   -1.0,   -1.0,   -0.9,   -1.0
2007/10/09 18:10,  999.0,    0.0,    0.2,    0.2,    0.1,  999.0,  999.0,  999.0,    1.0,    1.0,    0.4,    0.7,    0.6,    0.7,    0.6,    0.5,    0.5,    0.2,    0.1,    0.1,    0.2,    0.1,   -0.0,    0.0,    0.0,    0.1,    0.2,    0.1,    0.1,    0.1,    0.1,    0.1,    0.0,    0.0,   -0.0,    0.1,    0.2,    0.3,    0.3,    0.1,  999.0,    0.0,    0.1,    0.2,  999.0,    0.0,    0.2,   -0.1,    0.1,    0.2,    0.2,    0.0,   -0.0,    0.0,   -0.0,  999.0,  999.0,  999.0,  999.0,  999.0,   -0.3,   -0.4,   -0.3,   -0.1,   -0.4,   -0.5,   -0.3,   -0.4,   -0.4,   -0.6,   -0.6,   -0.7,   -0.8,   -1.1,   -1.1,   -1.1,   -1.0,   -1.1,   -1.0,   -1.0
2007/10/09 18:20,   -0.1,    0.0,    0.1,    0.1,    0.4,  999.0,    0.6,    0.9,    0.6,    0.8,    0.5,    0.5,    0.5,    0.4,    0.4,    0.2,    0.1,    0.2,    0.1,    0.2,    0.1,    0.1,    0.0,    0.0,    0.0,    0.1,   -0.0,    0.1,    0.1,    0.0,   -0.0,   -0.0,    0.0,    0.0,    0.0,   -0.0,    0.0,    0.0,    0.0,  999.0,  999.0,   -0.0,    0.0,    0.1,    0.2,    0.2,    0.1,    0.0,    0.2,    0.2,    0.2,    0.2,    0.1,    0.0,   -0.2,   -0.2,  999.0,  999.0,  999.0,   -0.3,   -0.4,   -0.1,  999.0,   -0.4,   -0.5,  999.0,   -0.4,  999.0,   -0.3,   -0.4,   -0.7,   -1.1,   -1.2,   -1.3,   -1.3,   -1.3,   -1.3,   -1.2,   -1.0,   -1.0
2007/10/09 18:30,    0.1,   -0.0,    0.1,    0.2,    0.4,    0.3,  999.0,  999.0,    0.7,    0.5,    0.3,    0.3,    0.4,    0.3,    0.1,    0.0,   -0.2,    0.2,    0.1,    0.1,    0.0,   -0.0,    0.0,    0.0,    0.0,   -0.0,   -0.0,   -0.0,    0.0,    0.1,   -0.0,   -0.0,    0.0,    0.0,    0.0,    0.0,    0.0,   -0.1,    0.0,  999.0,  999.0,    0.1,   -0.1,    0.2,    0.3,    0.2,    0.2,   -0.0,    0.1,    0.2,    0.0,    0.0,    0.1,   -0.1,   -0.1,   -0.1,   -0.2,   -0.3,   -0.2,   -0.3,   -0.2,   -0.3,   -0.2,   -0.5,   -0.4,   -0.4,   -0.1,   -0.2,   -0.9,   -1.7,   -1.7,   -1.5,   -1.4,   -1.4,   -1.3,   -1.2,   -1.2,   -1.1,   -1.1,   -1.0
2007/10/09 18:40,    0.0,    0.0,    0.0,    0.1,    0.3,    0.5,    0.3,    0.1,    0.0,    0.2,    0.0,   -0.1,   -0.0,   -0.2,   -0.3,   -0.4,   -0.2,   -0.1,   -0.1,   -0.2,   -0.2,   -0.1,   -0.0,   -0.0,   -0.0,    0.0,    0.0,   -0.0,   -0.0,   -0.0,   -0.0,   -0.0,   -0.0,   -0.0,   -0.1,   -0.1,   -0.1,   -0.3,  999.0,  999.0,  999.0,   -0.3,   -0.1,   -0.2,   -0.2,   -0.2,   -0.1,   -0.1,   -0.1,   -0.0,    0.0,  999.0,   -0.3,   -0.4,   -0.4,   -0.3,   -0.4,   -0.3,   -0.1,   -0.2,   -0.3,   -0.4,   -0.6,   -0.6,   -0.4,   -0.3,   -0.3,   -1.1,   -1.2,   -1.6,   -1.2,   -1.4,   -1.2,   -1.1,   -1.1,   -1.1,   -1.0,   -1.0,   -0.9,   -0.8
2007/10/09 18:50,    0.0,    0.0,    0.0,    0.1,    0.2,    0.3,    0.4,  999.0,  999.0,   -0.1,   -0.1,   -0.2,   -0.2,   -0.4,   -0.6,   -0.5,   -0.5,   -0.2,   -0.3,   -0.2,   -0.3,   -0.4,   -0.1,   -0.0,   -0.0,   -0.0,   -0.0,   -0.0,   -0.0,   -0.0,   -0.0,   -0.1,   -0.0,   -0.0,   -0.1,   -0.0,   -0.1,   -0.2,  999.0,  999.0,   -0.2,   -0.2,   -0.2,   -0.4,   -0.2,   -0.3,   -0.1,   -0.0,   -0.0,    0.0,    0.1,   -0.2,  999.0,   -0.4,   -0.4,   -0.3,   -0.5,   -0.3,  999.0,   -0.6,   -0.3,   -0.3,   -0.2,   -0.3,   -0.4,   -0.4,   -0.5,   -0.9,   -1.1,   -1.1,   -1.1,   -1.1,   -1.0,   -1.0,   -0.9,   -1.0,   -0.9,   -0.8,   -0.8,   -0.8
2007/10/09 19:00,    0.0,    0.0,   -0.0,    0.0,    0.2,   -0.0,  999.0,    0.2,    0.1,   -0.1,   -0.2,   -0.4,   -0.3,   -0.3,   -0.6,   -0.7,   -0.6,   -0.5,   -0.3,   -0.2,   -0.3,   -0.2,   -0.1,   -0.1,   -0.0,   -0.0,   -0.1,   -0.1,   -0.0,   -0.0,   -0.0,   -0.1,   -0.0,   -0.0,   -0.1,   -0.0,   -0.1,    0.0,  999.0,  999.0,   -0.2,   -0.1,   -0.1,   -0.1,   -0.1,   -0.1,   -0.1,   -0.0,   -0.1,   -0.3,  999.0,  999.0,   -0.2,   -0.3,   -0.2,    0.2,  999.0,  999.0,   -0.4,   -0.5,   -0.5,   -0.5,   -0.5,   -0.4,   -0.5,   -0.5,   -0.9,  999.0,   -0.5,   -0.7,   -2.1,   -1.9,   -1.8,   -1.5,   -1.4,   -1.3,   -1.1,   -1.0,   -0.9,   -0.9
2007/10/09 19:10,   -0.0,   -0.0,    0.0,    0.0,    0.1,    0.1,    0.1,    0.0,    0.0,   -0.2,   -0.4,  999.0,   -0.6,   -1.0,   -0.7,   -0.8,   -0.6,   -0.4,   -0.5,   -0.2,   -0.3,   -0.3,   -0.1,   -0.0,   -0.0,   -0.0,   -0.0,    0.0,    0.0,   -0.0,    0.0,   -0.0,   -0.0,   -0.0,   -0.0,    0.0,    0.0,    0.0,    0.1,  999.0,  999.0,   -0.1,    0.0,   -0.0,   -0.0,   -0.1,   -0.2,   -0.1,   -0.2,   -0.2,   -0.0,  999.0,  999.0,   -0.2,   -0.1,  999.0,  999.0,   -0.2,   -0.3,   -0.1,  999.0,   -0.4,   -0.1,  999.0,    0.1,    0.3,    0.3,    0.0,   -0.2,   -0.5,   -0.8,   -0.9,   -1.0,   -1.1,   -1.2,   -1.2,   -1.3,   -1.1,   -1.1,   -1.0
2007/10/09 19:20,   -0.0,    0.0,   -0.0,    0.0,    0.1,    0.2,   -0.2,    0.1,    0.1,   -0.2,  999.0,    0.1,   -0.4,   -0.7,   -0.7,   -0.6,   -0.6,   -0.4,   -0.4,   -0.4,   -0.4,   -0.3,   -0.1,   -0.1,   -0.1,   -0.2,   -0.1,   -0.0,    0.0,    0.0,   -0.0,    0.0,    0.0,    0.0,   -0.0,   -0.0,   -0.1,   -0.0,   -0.1,    0.0,  999.0,   -0.1,   -0.0,   -0.1,    0.1,   -0.0,   -0.0,   -0.0,   -0.0,   -0.0,   -0.1,   -0.1,    0.0,    0.0,   -0.0,  999.0,   -0.2,  999.0,    0.0,    0.0,    0.2,   -0.0,   -0.1,    0.0,    0.0,   -0.2,   -0.0,   -0.2,   -0.2,   -0.5,   -0.6,   -0.8,   -0.8,   -0.9,   -1.0,   -0.9,   -0.9,   -0.8,   -0.7,   -0.6
2007/10/09 19:30,    0.0,    0.0,    0.0,   -0.0,    0.0,    0.0,    0.1,    0.2,  999.0,   -0.6,  999.0,   -0.3,   -0.7,   -0.9,   -1.1,   -0.9,   -0.7,   -0.6,   -0.7,   -0.8,   -0.8,   -0.3,   -0.1,   -0.0,   -0.1,   -0.3,   -0.3,   -0.1,   -0.1,   -0.1,   -0.1,   -0.1,   -0.1,   -0.1,   -0.1,   -0.2,   -0.3,   -0.3,   -0.3,   -0.2,   -0.3,   -0.3,   -0.2,   -0.0,   -0.0,   -0.1,   -0.2,   -0.1,   -0.1,   -0.2,   -0.2,   -0.1,   -0.2,  999.0,   -0.3,   -0.2,  999.0,  999.0,    0.0,  999.0,    0.0,   -0.2,  999.0,    0.0,    0.3,    0.1,    0.1,    0.2,    0.2,    0.2,   -0.3,   -0.4,   -0.3,   -0.3,   -0.5,  999.0,   -0.6,   -0.7,  999.0,  999.0
2007/10/09 19:40,   -0.0,    0.0,    0.0,    0.0,    0.1,    0.1,  999.0,  999.0,    0.2,   -0.4,   -0.3,   -0.6,   -0.7,   -0.9,   -0.8,   -0.8,   -0.4,   -0.8,   -0.8,   -1.0,   -0.5,   -0.3,   -0.0,   -0.0,   -0.0,   -0.1,   -0.2,   -0.1,   -0.1,   -0.2,   -0.3,   -0.4,   -0.2,   -0.3,   -0.4,   -0.3,   -0.3,   -0.1,   -0.1,   -0.2,   -0.1,   -0.2,   -0.1,   -0.2,   -0.1,   -0.1,   -0.1,   -0.1,   -0.0,   -0.0,    0.0,   -0.0,    0.1,    0.0,    0.1,    0.2,  999.0,  999.0,  999.0,    0.1,    0.2,   -0.2,    0.1,   -0.1,   -0.3,   -0.6,   -0.9,   -1.2,   -1.0,   -0.8,   -0.7,   -0.6,   -0.5,   -0.5,   -0.5,   -0.5,   -0.5,   -0.5,   -0.4,   -0.4
2007/10/09 19:50,    0.0,    0.0,   -0.0,   -0.0,    0.1,    0.3,  999.0,  999.0,    0.3,  999.0,    0.0,   -0.3,   -0.3,   -0.5,   -0.5,   -0.4,   -0.1,   -0.3,   -0.3,   -0.2,   -0.1,   -0.1,   -0.0,    0.0,   -0.0,   -0.0,   -0.1,   -0.0,   -0.0,   -0.0,   -0.0,   -0.1,   -0.0,   -0.2,   -0.2,   -0.2,   -0.2,    0.0,    0.0,   -0.1,   -0.0,   -0.2,   -0.2,   -0.1,   -0.0,   -0.1,   -0.2,   -0.1,   -0.1,   -0.1,   -0.1,    0.0,   -0.2,    0.0,   -0.1,    0.0,  999.0,    0.2,   -0.1,  999.0,    0.0,   -0.0,   -0.1,   -0.0,  999.0,  999.0,    0.1,   -0.1,   -0.5,   -0.7,   -0.9,   -0.6,   -0.6,   -0.8,   -0.8,   -0.7,   -0.8,   -1.0,   -0.9,   -0.9
2007/10/09 20:00,   -0.0,    0.0,   -0.0,    0.0,   -0.0,   -0.1,    0.2,    0.3,    0.2,    0.2,   -0.0,  999.0,   -0.2,   -0.1,   -0.1,    0.0,   -0.1,   -0.0,    0.0,    0.2,    0.0,    0.0,   -0.1,    0.0,   -0.1,   -0.2,   -0.2,   -0.2,   -0.2,   -0.2,   -0.3,   -0.4,   -0.3,   -0.2,   -0.2,   -0.0,   -0.1,    0.0,    0.0,    0.1,    0.2,    0.1,    0.1,    0.1,    0.0,    0.0,    0.0,    0.0,   -0.1,   -0.1,   -0.1,   -0.1,   -0.0,   -0.1,    0.2,    0.1,    0.0,   -0.1,    0.0,   -0.1,   -0.1,    0.1,    0.1,   -0.2,    0.1,    0.1,  999.0,  999.0,  999.0,  999.0,   -1.2,   -1.2,   -0.9,   -0.9,   -0.8,   -0.7,   -0.7,   -0.7,   -0.6,   -0.6
2007/10/09 20:10,   -0.0,   -0.0,   -0.1,   -0.2,   -0.1,   -0.0,    0.0,   -0.0,  999.0,  999.0,  999.0,  999.0,   -0.0,   -0.2,   -0.3,   -0.3,   -0.3,   -0.8,   -0.1,   -0.2,   -0.4,   -0.7,   -0.6,   -0.2,   -0.2,   -0.6,   -0.4,   -0.1,   -0.1,   -0.1,   -0.4,   -0.1,   -0.2,   -0.2,   -0.2,   -0.1,   -0.1,   -0.0,    0.1,    0.1,    0.1,    0.0,    0.1,    0.1,    0.0,   -0.1,   -0.1,   -0.1,   -0.1,    0.0,   -0.1,   -0.0,    0.1,   -0.1,  999.0,    0.0,   -0.0,  999.0,    0.1,  999.0,    0.1,    0.1,   -0.1,    0.1,   -0.1,   -0.1,   -0.1,    0.0,    0.1,    0.2,   -0.3,   -0.6,   -0.5,   -0.6,   -0.6,   -0.6,   -0.7,   -0.6,   -0.6,   -0.5
2007/10/09 20:20,    0.0,   -0.0,   -0.0,    0.0,    0.1,   -0.1,    0.0,  999.0,    0.3,   -0.0,  999.0,   -0.1,   -0.2,   -0.1,  999.0,   -0.4,   -0.2,   -0.2,    0.0,   -0.1,   -0.2,   -0.3,   -0.3,   -0.3,   -0.3,   -0.6,   -0.7,   -0.3,   -0.1,    0.0,   -0.0,    0.0,    0.1,   -0.0,    0.1,   -0.1,   -0.4,   -0.3,   -0.0,    0.2,    0.2,    0.3,    0.2,    0.1,    0.1,    0.0,   -0.1,   -0.1,   -0.0,   -0.0,  999.0,   -0.2,   -0.1,  999.0,  999.0,   -0.0,  999.0,   -0.1,    0.0,   -0.0,    0.1,    0.0,   -0.2,    0.1,   -0.1,    0.1,    0.1,   -0.0,    0.0,   -0.3,   -0.4,   -0.8,   -1.0,   -1.0,   -0.9,   -1.0,   -1.1,   -0.8,   -0.9,   -0.7
2007/10/09 20:30,   -0.0,    0.0,    0.1,    0.0,    0.1,   -0.2,    0.2,    0.2,    0.2,  999.0,   -0.4,   -0.4,   -0.4,   -0.5,   -0.4,   -0.3,   -0.2,   -0.2,   -0.5,   -0.7,   -0.5,   -0.5,   -0.2,   -0.1,   -0.0,   -0.1,   -0.2,   -0.1,   -0.3,   -0.2,   -0.2,   -0.4,   -0.3,   -0.4,   -0.4,   -0.4,   -0.7,   -0.5,   -0.4,   -0.1,    0.0,   -0.0,    0.0,    0.0,    0.0,    0.0,   -0.1,   -0.0,   -0.0,    0.0,   -0.1,    0.0,    0.2,  999.0,  999.0,   -0.1,   -0.0,   -0.1,   -0.0,    0.0,    0.0,   -0.0,   -0.0,    0.0,  999.0,    0.5,    0.4,    0.2,    0.1,   -0.4,   -0.5,   -0.8,   -1.1,   -1.1,   -1.1,   -1.0,   -1.0,   -0.9,   -1.0,   -1.0
2007/10/09 20:40,   -0.5,    0.0,    0.0,   -0.0,   -0.1,    0.0,    0.2,   -0.2,    0.0,    0.8,    0.1,   -0.2,   -0.2,   -0.4,   -0.3,   -0.5,   -0.9,   -1.1,   -0.4,   -1.4,   -1.3,   -1.8,   -1.4,   -1.5,   -1.5,   -1.8,   -1.7,   -1.6,   -1.5,   -1.6,   -1.9,   -1.9,   -2.0,   -2.0,   -1.7,   -1.5,   -1.4,   -1.3,   -0.8,   -0.6,   -0.4,   -0.4,   -0.2,   -0.1,   -0.1,    0.2,   -0.0,   -0.0,   -0.0,    0.0,    0.0,    0.1,    0.0,  999.0,  999.0,  999.0,  999.0,  999.0,    0.2,    0.0,    0.0,  999.0,  999.0,  999.0,   -0.0,    0.2,    0.2,    0.1,    0.0,   -0.2,   -1.1,   -1.1,   -1.0,   -1.0,   -0.9,   -0.9,   -0.9,   -0.9,   -0.8,   -0.8
2007/10/09 20:50,   -0.0,   -0.0,   -0.1,    0.1,    0.1,   -0.1,    0.2,   -0.2,   -0.2,   -0.3,   -0.1,   -0.1,   -0.8,   -0.4,   -0.7,   -0.9,   -1.1,   -1.6,   -1.6,   -1.4,   -1.3,   -1.1,   -0.9,   -0.8,   -1.3,   -1.2,   -1.1,   -1.0,   -0.8,   -1.0,   -0.7,   -0.6,   -0.5,   -0.4,   -0.4,   -0.3,   -0.2,   -0.3,   -0.3,   -0.1,   -0.1,   -0.1,   -0.0,   -0.0,    0.1,   -0.1,   -0.0,   -0.1,   -0.1,    0.0,   -0.1,    0.0,  999.0,  999.0,  999.0,  999.0,  999.0,    0.1,  999.0,   -0.0,    0.0,  999.0,  999.0,  999.0,  999.0,  999.0,    0.2,   -0.0,    0.2,  999.0,  999.0,  999.0,   -0.6,   -0.6,   -0.6,   -0.7,   -0.8,   -0.8,   -0.9,   -0.6
2007/10/09 21:00,   -0.1,    0.4,    0.0,   -0.1,   -0.2,    0.1,   -0.0,   -0.2,   -0.4,   -0.2,   -0.2,   -0.2,   -0.9,   -0.3,   -1.4,   -1.4,   -1.5,   -1.4,   -1.4,   -1.3,   -1.2,   -1.1,   -0.7,   -0.3,   -0.4,   -0.6,   -0.4,   -0.4,   -0.4,   -0.3,   -0.2,   -0.2,   -0.2,   -0.2,   -0.2,   -0.1,   -0.1,   -0.2,   -0.1,   -0.1,   -0.2,   -0.0,   -0.4,   -0.2,   -0.3,   -0.2,   -0.1,   -0.2,   -0.1,    0.0,   -0.0,  999.0,  999.0,  999.0,  999.0,  999.0,  999.0,    0.1,    0.1,    0.1,    0.0,    0.1,    0.0,  999.0,  999.0,  999.0,  999.0,  999.0,  999.0,  999.0,  999.0,  999.0,  999.0,  999.0,   -1.0,   -0.9,   -0.8,  999.0,   -1.2,  999.0
2007/10/09 21:10,   -0.0,   -0.0,    0.0,   -0.0,    0.0,    0.0,   -0.2,   -0.4,   -0.1,   -0.0,   -0.7,   -0.3,   -0.4,   -0.5,   -0.3,    0.1,   -0.4,  999.0,   -0.8,   -0.7,   -0.7,   -0.6,   -0.3,   -0.1,   -0.1,   -0.2,   -0.1,   -0.1,   -0.0,   -0.0,   -0.0,   -0.0,   -0.1,   -0.1,   -0.0,   -0.0,    0.0,   -0.0,   -0.0,    0.2,    0.1,    0.0,   -0.0,   -0.1,   -0.1,   -0.2,   -0.1,  999.0,    0.0,  999.0,    0.0,  999.0,  999.0,  999.0,  999.0,  999.0,  999.0,   -0.0,   -0.0,   -0.2,   -0.3,   -0.2,  999.0,  999.0,  999.0,  999.0,  999.0,  999.0,  999.0,  999.0,  999.0,   -1.0,   -1.1,   -1.2,   -1.2,   -1.1,   -1.0,   -1.2,   -1.1,   -1.0
2007/10/09 21:20,    0.0,    0.0,   -0.0,   -0.0,   -0.0,    0.1,   -0.0,   -0.1,  999.0,   -0.6,   -0.4,   -0.4,   -0.6,   -0.6,   -0.6,   -0.4,   -0.6,   -0.6,   -0.3,   -0.2,   -0.3,   -0.1,   -0.0,   -0.0,   -0.1,   -0.0,    0.0,    0.0,    0.0,    0.0,    0.0,   -0.0,   -0.0,   -0.1,   -0.2,   -0.2,   -0.1,    0.0,   -0.0,    0.1,   -0.1,   -0.1,   -0.2,   -0.2,   -0.3,   -0.3,   -0.2,  999.0,    0.0,   -0.0,   -0.0,  999.0,   -0.3,   -0.4,   -0.3,   -0.3,   -0.2,   -0.3,   -0.2,   -0.2,   -0.2,   -0.3,  999.0,  999.0,  999.0,  999.0,  999.0,  999.0,  999.0,  999.0,  999.0,  999.0,  999.0,   -0.7,   -0.6,  999.0,  999.0,  999.0,  999.0,  999.0
2007/10/09 21:30,    0.0,   -0.0,    0.0,  999.0,   -0.2,    0.1,   -0.1,  999.0,   -0.2,   -0.2,   -0.5,   -0.6,   -0.7,   -0.8,   -0.5,   -0.4,   -0.4,   -0.5,   -0.4,   -0.3,   -0.2,   -0.1,    0.0,    0.0,   -0.0,   -0.0,    0.0,    0.1,    0.0,    0.1,    0.0,    0.1,    0.1,    0.1,    0.1,    0.1,    0.2,    0.0,   -0.0,   -0.1,   -0.1,   -0.1,   -0.2,   -0.3,   -0.2,   -0.1,    0.1,   -0.0,   -0.0,   -0.0,  999.0,  999.0,   -0.2,   -0.2,   -0.2,   -0.3,   -0.3,   -0.2,   -0.1,   -0.0,   -0.0,   -0.1,  999.0,  999.0,  999.0,  999.0,  999.0,  999.0,  999.0,  999.0,  999.0,  999.0,  999.0,  999.0,  999.0,  999.0,  999.0,  999.0,  999.0,  999.0
2007/10/09 21:40,    0.0,    0.0,    0.0,   -0.1,  999.0,  999.0,   -0.2,  999.0,  999.0,  999.0,   -0.2,   -0.6,   -0.5,   -0.4,   -0.5,   -0.0,   -0.2,   -0.6,   -0.3,   -0.4,   -0.1,   -0.0,    0.0,   -0.0,   -0.0,   -0.0,   -0.1,   -0.0,    0.0,   -0.0,    0.0,    0.0,   -0.1,   -0.0,   -0.1,    0.0,   -0.0,   -0.1,   -0.1,   -0.0,   -0.0,   -0.0,    0.0,   -0.0,   -0.1,    0.0,    0.0,    0.0,    0.0,    0.1,   -0.1,   -0.0,   -0.1,   -0.1,   -0.2,   -0.2,   -0.2,   -0.0,   -0.2,   -0.1,  999.0,    0.0,   -0.1,  999.0,  999.0,  999.0,  999.0,  999.0,  999.0,  999.0,  999.0,  999.0,  999.0,  999.0,  999.0,  999.0,  999.0,  999.0,  999.0,  999.0
2007/10/09 21:50,   -0.0,   -0.0,    0.0,   -0.1,   -0.1,   -0.4,   -0.3,   -0.1,  999.0,    0.0,  999.0,   -0.5,  999.0,   -0.6,  999.0,  999.0,   -0.2,   -0.4,   -0.4,   -0.0,    0.1,    0.0,    0.0,    0.0,   -0.0,    0.0,    0.1,    0.0,    0.0,   -0.0,    0.0,    0.0,    0.0,    0.0,    0.0,    0.0,    0.1,    0.1,    0.2,    0.2,    0.2,    0.2,    0.1,    0.2,  999.0,   -0.0,   -0.0,   -0.0,    0.0,    0.0,  999.0,    0.1,    0.1,    0.1,    0.1,    0.1,    0.1,   -0.0,  999.0,    0.1,    0.0,  999.0,  999.0,  999.0,  999.0,  999.0,  999.0,  999.0,  999.0,  999.0,  999.0,  999.0,  999.0,  999.0,  999.0,  999.0,  999.0,  999.0,  999.0,  999.0
2007/10/09 22:00,   -0.0,    0.0,   -0.0,    0.1,  999.0,    0.2,    0.2,    0.3,   -0.0,    0.1,  999.0,  999.0,   -0.2,  999.0,   -0.1,   -0.4,   -0.2,   -0.5,    0.2,    0.0,   -0.1,    0.1,    0.0,    0.0,    0.0,    0.0,    0.0,    0.0,    0.0,    0.1,    0.1,    0.1,    0.1,    0.1,    0.2,    0.1,    0.1,    0.2,    0.2,    0.2,    0.2,    0.1,    0.2,    0.2,    0.1,    0.0,   -0.0,   -0.0,  999.0,   -0.0,   -0.1,   -0.0,    0.2,    0.2,    0.2,    0.2,    0.1,    0.2,    0.3,    0.1,   -0.0,  999.0,  999.0,  999.0,  999.0,  999.0,  999.0,  999.0,    0.1,  999.0,    0.3,    0.1,  999.0,  999.0,  999.0,  999.0,  999.0,  999.0,  999.0,  999.0
2007/10/09 22:10,    0.0,    0.0,    0.1,    0.0,    0.4,  999.0,    0.8,    0.5,    1.4,    0.7,    0.3,    0.4,  999.0,  999.0,   -0.0,    0.4,    0.2,    0.3,   -0.0,   -0.1,    0.1,   -0.0,   -0.0,    0.0,    0.0,    0.0,    0.1,    0.1,    0.0,   -0.1,   -0.1,   -0.0,   -0.1,    0.0,    0.0,    0.1,    0.0,    0.2,    0.3,    0.2,    0.3,    0.3,    0.3,    0.3,    0.3,    0.1,    0.1,    0.2,    0.1,    0.3,    0.3,    0.3,    0.3,    0.3,    0.2,   -0.0,   -0.0,    0.0,    0.1,    0.1,    0.2,    0.2,   -0.0,    0.3,    0.1,    0.1,    0.1,  999.0,    0.4,    0.1,   -0.1,    0.1,  999.0,  999.0,  999.0,  999.0,  999.0,  999.0,  999.0,  999.0
2007/10/09 22:20,   -0.0,    0.0,    0.1,    0.1,    0.2,  999.0,    0.1,  999.0,  999.0,  999.0,   -0.3,   -0.2,   -0.2,   -0.4,   -0.2,   -0.2,   -0.3,   -0.3,   -0.2,   -0.2,   -0.4,   -0.0,    0.0,   -0.0,    0.0,    0.0,   -0.0,   -0.1,   -0.1,   -0.0,   -0.1,   -0.0,    0.0,   -0.0,    0.0,   -0.0,    0.0,   -0.0,   -0.1,    0.0,   -0.1,   -0.0,   -0.0,   -0.1,   -0.2,   -0.2,   -0.1,   -0.3,   -0.2,   -0.1,   -0.1,   -0.1,    0.0,   -0.1,   -0.1,   -0.1,   -0.1,   -0.1,   -0.1,   -0.1,   -0.0,    0.0,    0.0,    0.0,   -0.3,    0.2,    0.1,    0.0,   -0.2,    0.0,    0.1,   -0.2,  999.0,  999.0,  999.0,  999.0,  999.0,   -0.9,  999.0,  999.0
2007/10/09 22:30,   -0.0,   -0.0,    0.0,    0.1,    0.2,    0.5,    0.3,    0.6,  999.0,    0.2,   -0.2,   -0.5,   -0.5,   -0.2,   -0.2,   -0.3,   -0.3,   -0.3,   -0.6,   -0.5,   -0.2,   -0.1,   -0.0,    0.0,    0.0,   -0.0,   -0.1,   -0.1,   -0.1,   -0.1,   -0.0,   -0.0,   -0.0,    0.0,   -0.0,    0.0,  999.0,  999.0,   -0.0,    0.0,   -0.0,   -0.0,    0.1,   -0.1,   -0.3,   -0.3,   -0.2,   -0.2,   -0.2,   -0.1,   -0.1,   -0.2,   -0.1,   -0.1,   -0.1,   -0.1,   -0.0,   -0.0,   -0.1,   -0.1,   -0.1,   -0.0,   -0.1,    0.0,  999.0,  999.0,   -0.0,   -0.1,  999.0,   -0.4,   -0.4,  999.0,  999.0,  999.0,  999.0,  999.0,  999.0,   -0.8,  999.0,  999.0
2007/10/09 22:40,    0.0,    0.0,    0.0,    0.1,    0.3,    0.2,  999.0,  999.0,  999.0,    0.4,   -0.1,  999.0,  999.0,   -0.2,   -0.3,   -0.1,   -0.1,   -0.4,   -0.3,   -0.3,   -0.1,   -0.1,    0.0,    0.0,    0.0,   -0.1,   -0.1,   -0.2,   -0.2,   -0.1,   -0.2,   -0.1,    0.1,    0.0,   -0.1,  999.0,    0.0,  999.0,  999.0,   -0.0,   -0.4,   -0.3,   -0.2,   -0.2,   -0.2,   -0.3,   -0.2,   -0.0,   -0.1,  999.0,    0.0,    0.2,    0.1,   -0.1,   -0.0,   -0.1,   -0.1,   -0.1,   -0.0,   -0.1,   -0.1,   -0.1,   -0.1,   -0.1,   -0.3,   -0.1,   -0.3,   -0.1,   -0.2,   -0.2,   -0.1,   -0.5,  999.0,  999.0,  999.0,  999.0,  999.0,  999.0,  999.0,  999.0
2007/10/09 22:50,    0.1,   -0.0,   -0.0,    0.1,    0.6,    0.5,  999.0,    0.4,  999.0,  999.0,   -0.1,   -0.0,   -0.0,   -0.1,    0.2,   -0.2,   -0.1,  999.0,   -0.1,   -0.1,   -0.1,   -0.3,   -0.1,   -0.0,   -0.1,   -0.0,   -0.0,   -0.0,    0.0,    0.0,   -0.0,   -0.1,    0.0,    0.0,   -0.1,    0.1,  999.0,    0.1,    0.1,  999.0,  999.0,   -0.2,   -0.0,    0.1,    0.2,    0.1,  999.0,    0.1,    0.1,    0.2,  999.0,  999.0,  999.0,    0.1,    0.2,    0.2,    0.2,    0.2,    0.3,    0.2,    0.3,    0.3,    0.2,    0.1,    0.0,   -0.0,    0.1,   -0.2,   -0.1,   -0.2,  999.0,  999.0,  999.0,  999.0,  999.0,  999.0,   -0.7,   -0.8,   -0.8,   -0.8
2007/10/09 23:00,   -0.0,    0.0,    0.1,    0.2,    0.2,  999.0,    0.3,  999.0,  999.0,  999.0,  999.0,  999.0,  999.0,    0.5,    0.1,    0.4,    0.0,  999.0,   -0.0,    0.2,    0.1,   -0.1,   -0.0,    0.0,    0.0,    0.2,    0.1,    0.1,    0.2,    0.2,    0.2,  999.0,    0.0,    0.0,    0.1,  999.0,  999.0,    0.3,  999.0,  999.0,  999.0,    0.2,    0.2,    0.3,    0.3,    0.4,    0.3,    0.4,    0.3,    0.2,    0.2,  999.0,  999.0,  999.0,  999.0,  999.0,    0.3,    0.2,    0.3,    0.2,    0.2,    0.3,    0.3,    0.4,    0.1,   -0.1,   -0.5,   -0.6,   -0.6,   -0.6,   -0.5,   -0.5,   -0.5,   -0.5,   -0.5,   -0.6,   -0.6,   -0.6,   -0.7,   -0.7
2007/10/09 23:10,    0.0,   -0.0,    0.2,    0.0,  999.0,   -0.2,  999.0,  999.0,  999.0,  999.0,  999.0,  999.0,    0.2,   -0.2,   -0.2,    0.2,   -0.1,   -0.1,    0.2,    0.1,    0.3,    0.1,    0.0,   -0.1,    0.0,    0.2,    0.3,    0.2,    0.3,    0.3,    0.2,    0.1,    0.0,    0.1,   -0.1,   -0.2,    0.1,    0.2,    0.2,  999.0,    0.2,  999.0,    0.0,    0.2,    0.3,    0.1,    0.2,    0.3,    0.2,    0.1,    0.1,    0.1,    0.1,  999.0,  999.0,  999.0,  999.0,   -0.2,   -0.2,   -0.3,    0.1,    0.0,   -0.1,    0.0,   -0.1,   -0.0,   -0.1,   -0.2,   -0.2,   -0.3,   -0.4,   -0.4,   -0.5,   -0.6,   -0.8,   -0.9,   -0.9,   -0.7,   -0.8,   -0.9
2007/10/09 23:20,    0.0,  999.0,   -0.1,  999.0,    0.1,  999.0,  999.0,  999.0,  999.0,  999.0,  999.0,  999.0,  999.0,   -1.4,   -1.8,   -1.6,   -1.7,   -1.3,   -1.4,   -1.4,   -1.4,   -1.2,   -1.0,   -1.2,   -1.3,   -1.0,   -1.0,   -1.3,   -1.3,   -1.5,   -1.4,   -2.7,   -1.7,   -1.3,   -1.7,   -1.4,   -1.7,   -2.8,   -2.5,   -1.7,   -1.4,   -0.9,   -1.2,   -0.6,   -0.5,   -0.5,   -0.5,   -0.6,   -0.5,   -0.5,   -0.5,   -0.6,   -0.8,   -1.0,   -1.2,   -1.2,   -1.1,   -1.0,   -0.8,   -0.8,   -0.8,   -0.7,   -0.6,   -0.7,   -0.7,   -0.7,   -0.6,   -0.5,   -0.5,   -0.5,   -0.3,  999.0,   -0.2,  999.0,  999.0,  999.0,  999.0,  999.0,  999.0,  999.0
2007/10/09 23:30,    0.0,  999.0,  999.0,  999.0,    0.1,    0.0,    0.2,   -0.3,  999.0,  999.0,  999.0,  999.0,  999.0,   -3.0,   -3.0,   -3.3,   -3.4,   -3.4,   -3.3,   -3.4,   -3.4,   -3.3,   -3.2,   -3.2,   -2.9,   -3.2,   -3.1,   -3.2,   -3.4,   -3.4,   -3.5,   -3.5,   -3.5,   -3.8,   -3.6,   -3.6,   -3.7,   -3.6,   -2.7,   -1.9,   -1.4,   -1.2,   -1.3,   -1.3,   -1.3,   -1.3,   -1.3,   -1.2,   -1.2,   -1.1,   -1.1,   -1.1,   -1.2,   -1.2,   -1.1,   -1.0,   -1.0,   -0.9,   -0.9,   -0.9,   -0.9,   -0.8,   -0.8,   -0.7,   -0.7,   -0.6,   -0.5,   -0.6,   -0.5,   -0.7,   -0.8,   -0.7,   -0.6,   -0.9,   -0.8,   -0.7,   -0.7,   -0.7,   -0.8,   -0.7
2007/10/09 23:40,  999.0,  999.0,  999.0,  999.0,   -0.4,  999.0,  999.0,  999.0,  999.0,    0.3,    0.5,  999.0,  999.0,   -2.4,   -3.2,   -2.8,   -2.8,   -2.9,   -2.8,   -2.8,   -2.7,   -2.8,   -2.6,   -2.6,   -2.8,   -2.6,   -2.7,   -2.7,   -2.8,   -2.7,   -2.7,   -2.7,   -2.6,   -2.8,   -2.8,   -2.5,   -2.7,   -2.9,   -2.7,   -1.7,   -1.0,   -0.3,   -0.8,   -0.8,   -0.8,   -1.2,   -1.3,   -1.4,   -1.5,   -1.5,   -1.4,   -1.4,   -1.2,   -1.1,   -1.0,   -1.0,   -1.0,   -1.0,   -1.0,   -1.0,   -0.9,   -0.8,   -0.8,   -0.8,   -0.8,   -0.8,   -0.8,   -0.8,   -0.8,   -0.7,   -0.7,   -0.7,   -0.7,   -0.7,   -0.7,   -0.6,   -0.7,   -0.7,   -0.7,   -0.8
2007/10/09 23:50,   -0.0,    0.0,   -0.0,   -0.1,    0.3,    0.4,    0.0,  999.0,    0.1,  999.0,  999.0,   -0.5,   -0.4,   -1.5,   -2.1,   -2.2,   -2.2,   -2.2,   -2.3,   -2.6,   -2.7,   -2.6,   -2.4,   -2.4,   -1.8,   -1.9,   -1.6,   -1.7,   -1.6,   -1.6,   -2.0,   -1.9,   -2.0,   -2.2,   -2.2,   -2.2,   -2.1,   -1.7,   -2.1,   -0.8,   -0.4,   -0.2,   -0.3,   -0.3,   -0.5,   -0.7,   -0.9,   -1.0,   -1.2,   -1.3,   -1.4,   -1.3,   -1.2,   -1.2,   -1.0,   -1.0,   -0.9,   -0.8,   -0.7,   -0.8,   -0.7,   -0.6,   -0.7,   -0.7,   -0.7,   -0.7,   -0.7,   -0.7,   -0.6,   -0.6,   -0.6,   -0.7,   -0.6,   -0.6,   -0.6,   -0.7,   -0.7,   -0.6,   -0.6,   -0.5
